Time,TemperatureF,DewpointF,PressureIn,WindDirection,WindDirectionDegrees,WindSpeedMPH,WindSpeedGustMPH,Humidity,HourlyPrecipIn,Conditions,Clouds,dailyrainin,SoftwareType,DateUTC
2013-01-14 00:03:00,-3.6,-8.9,100.00,East,90,1.6,2.2,67,0.00,,,0.00,fowsr,2013-01-14 07:03:00,
2013-01-14 00:04:00,-3.5,-8.7,30.07,SE,135,1.6,2.2,67,0.00,,,0.00,fowsr,2013-01-14 07:04:00,
2013-01-14 00:08:00,-3.8,-9.0,100.00,East,90,2.2,3.1,67,0.00,,,0.00,fowsr,2013-01-14 07:08:00,
2013-01-14 00:09:00,-3.6,-8.9,30.07,East,90,0.7,1.6,67,0.00,,,0.00,fowsr,2013-01-14 07:09:00,
2013-01-14 00:13:00,-3.8,-9.0,100.00,East,90,3.1,3.8,67,0.00,,,0.00,fowsr,2013-01-14 07:13:00,
2013-01-14 00:14:00,-3.8,-9.0,30.06,East,90,2.2,3.8,67,0.00,,,0.00,fowsr,2013-01-14 07:14:00,
2013-01-14 00:18:00,-3.3,-8.3,100.00,NNE,22,2.2,3.1,68,0.00,,,0.00,fowsr,2013-01-14 07:18:00,
2013-01-14 00:19:00,-3.8,-9.0,30.07,NE,45,2.2,3.1,67,0.00,,,0.00,fowsr,2013-01-14 07:19:00,
2013-01-14 00:23:00,-2.2,-7.1,100.00,NNE,22,2.2,3.1,69,0.00,,,0.00,fowsr,2013-01-14 07:23:00,
2013-01-14 00:24:00,-3.1,-8.2,30.07,NNE,22,2.2,3.1,68,0.00,,,0.00,fowsr,2013-01-14 07:24:00,
2013-01-14 00:28:00,-1.5,-6.4,100.00,NE,45,0.7,2.2,69,0.00,,,0.00,fowsr,2013-01-14 07:28:00,
2013-01-14 00:29:00,-2.0,-6.9,30.07,NNE,22,2.2,3.1,69,0.00,,,0.00,fowsr,2013-01-14 07:29:00,
2013-01-14 00:33:00,-1.7,-6.6,100.00,NE,45,0.0,0.7,69,0.00,,,0.00,fowsr,2013-01-14 07:33:00,
2013-01-14 00:34:00,-1.7,-6.6,100.00,NE,45,0.0,0.7,69,0.00,,,0.00,fowsr,2013-01-14 07:34:00,
2013-01-14 00:35:00,-1.5,-6.4,30.06,NE,45,0.7,2.2,69,0.00,,,0.00,fowsr,2013-01-14 07:35:00,
2013-01-14 00:38:00,-2.2,-7.3,100.00,North,0,0.7,1.6,68,0.00,,,0.00,fowsr,2013-01-14 07:38:00,
2013-01-14 00:39:00,-2.2,-7.3,100.00,North,0,0.7,1.6,68,0.00,,,0.00,fowsr,2013-01-14 07:39:00,
2013-01-14 00:40:00,-1.8,-6.8,30.07,NE,45,0.0,0.7,69,0.00,,,0.00,fowsr,2013-01-14 07:40:00,
2013-01-14 00:43:00,-2.2,-7.1,100.00,North,0,3.1,3.8,69,0.00,,,0.00,fowsr,2013-01-14 07:43:00,
2013-01-14 00:44:00,-2.2,-7.1,100.00,North,0,3.1,3.8,69,0.00,,,0.00,fowsr,2013-01-14 07:44:00,
2013-01-14 00:45:00,-2.2,-7.3,30.07,NW,315,1.6,3.1,68,0.00,,,0.00,fowsr,2013-01-14 07:45:00,
2013-01-14 00:48:00,-1.7,-6.6,100.00,North,0,0.0,0.0,69,0.00,,,0.00,fowsr,2013-01-14 07:48:00,
2013-01-14 00:49:00,-1.7,-6.6,100.00,North,0,0.0,0.0,69,0.00,,,0.00,fowsr,2013-01-14 07:49:00,
2013-01-14 00:50:00,-1.8,-6.8,30.06,North,0,1.6,2.2,69,0.00,,,0.00,fowsr,2013-01-14 07:50:00,
2013-01-14 00:53:00,-1.7,-6.6,100.00,North,0,0.0,0.0,69,0.00,,,0.00,fowsr,2013-01-14 07:53:00,
2013-01-14 00:54:00,-1.7,-6.6,100.00,North,0,0.0,0.0,69,0.00,,,0.00,fowsr,2013-01-14 07:54:00,
2013-01-14 00:55:00,-1.7,-6.6,30.06,North,0,0.0,0.0,69,0.00,,,0.00,fowsr,2013-01-14 07:55:00,
2013-01-14 00:58:00,-1.7,-6.6,100.00,North,0,0.0,0.0,69,0.00,,,0.00,fowsr,2013-01-14 07:58:00,
2013-01-14 00:59:00,-1.7,-6.6,100.00,North,0,0.0,0.0,69,0.00,,,0.00,fowsr,2013-01-14 07:59:00,
2013-01-14 01:00:00,-1.7,-6.6,30.06,North,0,0.0,0.0,69,0.00,,,0.00,fowsr,2013-01-14 08:00:00,
2013-01-14 01:03:00,-1.7,-6.6,100.00,North,0,0.0,0.0,69,0.00,,,0.00,fowsr,2013-01-14 08:03:00,
2013-01-14 01:04:00,-1.7,-6.6,100.00,North,0,0.0,0.0,69,0.00,,,0.00,fowsr,2013-01-14 08:04:00,
2013-01-14 01:05:00,-1.7,-6.6,30.06,North,0,0.0,0.0,69,0.00,,,0.00,fowsr,2013-01-14 08:05:00,
2013-01-14 01:08:00,-1.8,-6.8,100.00,North,0,0.0,1.6,69,0.00,,,0.00,fowsr,2013-01-14 08:08:00,
2013-01-14 01:09:00,-1.8,-6.8,100.00,North,0,0.0,1.6,69,0.00,,,0.00,fowsr,2013-01-14 08:09:00,
2013-01-14 01:13:00,-2.0,-6.9,100.00,ESE,112,0.7,2.2,69,0.00,,,0.00,fowsr,2013-01-14 08:13:00,
2013-01-14 01:14:00,-1.8,-6.8,30.06,North,0,0.0,0.0,69,0.00,,,0.00,fowsr,2013-01-14 08:14:00,
2013-01-14 01:18:00,-2.4,-7.5,100.00,ESE,112,1.6,3.1,68,0.00,,,0.00,fowsr,2013-01-14 08:18:00,
2013-01-14 01:19:00,-2.2,-7.3,30.06,ESE,112,1.6,2.2,68,0.00,,,0.00,fowsr,2013-01-14 08:19:00,
2013-01-14 01:23:00,-2.7,-7.8,100.00,East,90,2.2,3.8,68,0.00,,,0.00,fowsr,2013-01-14 08:23:00,
2013-01-14 01:24:00,-2.4,-7.5,30.06,East,90,2.2,3.1,68,0.00,,,0.00,fowsr,2013-01-14 08:24:00,
2013-01-14 01:28:00,-3.8,-9.0,100.00,ESE,112,4.5,5.4,67,0.00,,,0.00,fowsr,2013-01-14 08:28:00,
2013-01-14 01:29:00,-3.1,-8.2,30.06,NE,45,2.2,3.1,68,0.00,,,0.00,fowsr,2013-01-14 08:29:00,
2013-01-14 01:33:00,-4.5,-9.7,100.00,East,90,3.8,4.5,67,0.00,,,0.00,fowsr,2013-01-14 08:33:00,
2013-01-14 01:34:00,-3.8,-9.0,30.06,NE,45,3.8,5.4,67,0.00,,,0.00,fowsr,2013-01-14 08:34:00,
2013-01-14 01:38:00,-4.9,-9.9,100.00,NE,45,3.1,3.8,68,0.00,,,0.00,fowsr,2013-01-14 08:38:00,
2013-01-14 01:39:00,-4.7,-9.9,30.06,East,90,4.5,6.0,67,0.00,,,0.00,fowsr,2013-01-14 08:39:00,
2013-01-14 01:43:00,-3.8,-8.5,100.00,East,90,1.6,2.2,70,0.00,,,0.00,fowsr,2013-01-14 08:43:00,
2013-01-14 01:44:00,-4.5,-9.5,30.06,NE,45,3.1,3.8,68,0.00,,,0.00,fowsr,2013-01-14 08:44:00,
2013-01-14 01:48:00,-4.2,-9.0,100.00,East,90,3.8,4.5,69,0.00,,,0.00,fowsr,2013-01-14 08:48:00,
2013-01-14 01:49:00,-3.8,-8.7,30.06,East,90,1.6,3.1,69,0.00,,,0.00,fowsr,2013-01-14 08:49:00,
2013-01-14 01:53:00,-5.3,-10.2,100.00,East,90,3.8,4.5,68,0.00,,,0.00,fowsr,2013-01-14 08:53:00,
2013-01-14 01:54:00,-4.4,-9.2,30.06,East,90,3.8,4.5,69,0.00,,,0.00,fowsr,2013-01-14 08:54:00,
2013-01-14 01:58:00,-5.4,-10.4,100.00,ENE,67,3.1,3.8,68,0.00,,,0.00,fowsr,2013-01-14 08:58:00,
2013-01-14 01:59:00,-5.4,-10.4,30.06,NE,45,3.8,4.5,68,0.00,,,0.00,fowsr,2013-01-14 08:59:00,
2013-01-14 02:03:00,-5.1,-9.9,100.00,East,90,3.1,3.8,69,0.00,,,0.00,fowsr,2013-01-14 09:03:00,
2013-01-14 02:04:00,-5.4,-10.4,30.07,ENE,67,3.1,3.8,68,0.00,,,0.00,fowsr,2013-01-14 09:04:00,
2013-01-14 02:08:00,-5.1,-9.9,100.00,East,90,2.2,3.1,69,0.00,,,0.00,fowsr,2013-01-14 09:08:00,
2013-01-14 02:09:00,-4.9,-9.7,30.07,East,90,2.2,3.8,69,0.00,,,0.00,fowsr,2013-01-14 09:09:00,
2013-01-14 02:13:00,-4.9,-9.7,100.00,East,90,2.2,3.8,69,0.00,,,0.00,fowsr,2013-01-14 09:13:00,
2013-01-14 02:14:00,-5.1,-9.9,30.07,East,90,2.2,3.8,69,0.00,,,0.00,fowsr,2013-01-14 09:14:00,
2013-01-14 02:18:00,-5.3,-10.0,100.00,East,90,3.1,3.8,69,0.00,,,0.00,fowsr,2013-01-14 09:18:00,
2013-01-14 02:19:00,-5.1,-9.9,30.07,East,90,2.2,4.5,69,0.00,,,0.00,fowsr,2013-01-14 09:19:00,
2013-01-14 02:23:00,-5.8,-10.7,100.00,East,90,2.2,3.8,68,0.00,,,0.00,fowsr,2013-01-14 09:23:00,
2013-01-14 02:24:00,-5.4,-10.4,30.07,East,90,3.1,4.5,68,0.00,,,0.00,fowsr,2013-01-14 09:24:00,
2013-01-14 02:28:00,-6.2,-11.1,100.00,East,90,2.2,3.8,68,0.00,,,0.00,fowsr,2013-01-14 09:28:00,
2013-01-14 02:29:00,-6.0,-10.9,30.07,East,90,3.1,4.5,68,0.00,,,0.00,fowsr,2013-01-14 09:29:00,
2013-01-14 02:33:00,-6.0,-10.9,100.00,East,90,3.1,3.8,68,0.00,,,0.00,fowsr,2013-01-14 09:33:00,
2013-01-14 02:34:00,-6.0,-10.9,30.07,East,90,3.1,4.5,68,0.00,,,0.00,fowsr,2013-01-14 09:34:00,
2013-01-14 02:38:00,-6.5,-11.4,100.00,SE,135,2.2,3.8,68,0.00,,,0.00,fowsr,2013-01-14 09:38:00,
2013-01-14 02:39:00,-6.2,-11.1,30.07,East,90,2.2,3.8,68,0.00,,,0.00,fowsr,2013-01-14 09:39:00,
2013-01-14 02:43:00,-7.1,-12.1,100.00,East,90,3.1,4.5,67,0.00,,,0.00,fowsr,2013-01-14 09:43:00,
2013-01-14 02:44:00,-6.5,-11.6,30.06,East,90,3.1,5.4,67,0.00,,,0.00,fowsr,2013-01-14 09:44:00,
2013-01-14 02:48:00,-7.6,-12.7,100.00,East,90,3.1,4.5,67,0.00,,,0.00,fowsr,2013-01-14 09:48:00,
2013-01-14 02:49:00,-7.4,-12.5,30.06,ESE,112,3.8,4.5,67,0.00,,,0.00,fowsr,2013-01-14 09:49:00,
2013-01-14 02:53:00,-7.6,-12.7,100.00,East,90,3.8,4.5,67,0.00,,,0.00,fowsr,2013-01-14 09:53:00,
2013-01-14 02:54:00,-7.6,-12.7,30.07,East,90,2.2,4.5,67,0.00,,,0.00,fowsr,2013-01-14 09:54:00,
2013-01-14 02:58:00,-7.4,-12.5,100.00,East,90,3.1,3.8,67,0.00,,,0.00,fowsr,2013-01-14 09:58:00,
2013-01-14 02:59:00,-7.6,-12.7,30.06,East,90,3.8,4.5,67,0.00,,,0.00,fowsr,2013-01-14 09:59:00,
2013-01-14 03:03:00,-7.4,-12.5,100.00,East,90,2.2,3.8,67,0.00,,,0.00,fowsr,2013-01-14 10:03:00,
2013-01-14 03:04:00,-7.4,-12.5,30.06,East,90,3.1,3.8,67,0.00,,,0.00,fowsr,2013-01-14 10:04:00,
2013-01-14 03:08:00,-7.6,-12.7,100.00,SE,135,3.1,4.5,67,0.00,,,0.00,fowsr,2013-01-14 10:08:00,
2013-01-14 03:09:00,-7.4,-12.5,30.06,East,90,2.2,3.1,67,0.00,,,0.00,fowsr,2013-01-14 10:09:00,
2013-01-14 03:13:00,-8.3,-13.5,100.00,East,90,2.2,3.1,66,0.00,,,0.00,fowsr,2013-01-14 10:13:00,
2013-01-14 03:14:00,-7.8,-12.8,30.06,SE,135,3.8,4.5,67,0.00,,,0.00,fowsr,2013-01-14 10:14:00,
2013-01-14 03:18:00,-8.5,-13.5,100.00,East,90,2.2,3.8,67,0.00,,,0.00,fowsr,2013-01-14 10:18:00,
2013-01-14 03:19:00,-8.5,-13.5,100.00,East,90,2.2,3.8,67,0.00,,,0.00,fowsr,2013-01-14 10:19:00,
2013-01-14 03:20:00,-8.5,-13.7,30.06,SSE,157,1.6,3.1,66,0.00,,,0.00,fowsr,2013-01-14 10:20:00,
2013-01-14 03:23:00,-8.1,-13.2,100.00,East,90,1.6,2.2,67,0.00,,,0.00,fowsr,2013-01-14 10:23:00,
2013-01-14 03:24:00,-8.1,-13.2,100.00,East,90,1.6,2.2,67,0.00,,,0.00,fowsr,2013-01-14 10:24:00,
2013-01-14 03:25:00,-8.5,-13.5,30.07,East,90,2.2,3.8,67,0.00,,,0.00,fowsr,2013-01-14 10:25:00,
2013-01-14 03:28:00,-6.7,-11.6,100.00,NE,45,0.7,1.6,68,0.00,,,0.00,fowsr,2013-01-14 10:28:00,
2013-01-14 03:29:00,-6.7,-11.6,100.00,NE,45,0.7,1.6,68,0.00,,,0.00,fowsr,2013-01-14 10:29:00,
2013-01-14 03:30:00,-7.1,-11.8,30.06,NE,45,0.7,1.6,69,0.00,,,0.00,fowsr,2013-01-14 10:30:00,
2013-01-14 03:33:00,-6.9,-11.8,100.00,East,90,0.7,1.6,68,0.00,,,0.00,fowsr,2013-01-14 10:33:00,
2013-01-14 03:34:00,-6.9,-11.8,100.00,East,90,0.7,1.6,68,0.00,,,0.00,fowsr,2013-01-14 10:34:00,
2013-01-14 03:35:00,-6.7,-11.6,30.07,East,90,1.6,2.2,68,0.00,,,0.00,fowsr,2013-01-14 10:35:00,
2013-01-14 03:38:00,-6.9,-11.8,100.00,East,90,2.2,3.1,68,0.00,,,0.00,fowsr,2013-01-14 10:38:00,
2013-01-14 03:39:00,-6.9,-11.8,100.00,East,90,2.2,3.1,68,0.00,,,0.00,fowsr,2013-01-14 10:39:00,
2013-01-14 03:40:00,-6.9,-11.8,30.06,East,90,1.6,2.2,68,0.00,,,0.00,fowsr,2013-01-14 10:40:00,
2013-01-14 03:43:00,-7.6,-12.7,100.00,East,90,2.2,3.8,67,0.00,,,0.00,fowsr,2013-01-14 10:43:00,
2013-01-14 03:44:00,-7.6,-12.7,100.00,East,90,2.2,3.8,67,0.00,,,0.00,fowsr,2013-01-14 10:44:00,
2013-01-14 03:45:00,-7.1,-12.1,30.07,East,90,3.8,4.5,67,0.00,,,0.00,fowsr,2013-01-14 10:45:00,
2013-01-14 03:48:00,-7.8,-12.8,100.00,East,90,3.1,3.8,67,0.00,,,0.00,fowsr,2013-01-14 10:48:00,
2013-01-14 03:49:00,-7.8,-12.8,100.00,East,90,3.1,3.8,67,0.00,,,0.00,fowsr,2013-01-14 10:49:00,
2013-01-14 03:50:00,-7.8,-12.8,30.07,SE,135,2.2,3.1,67,0.00,,,0.00,fowsr,2013-01-14 10:50:00,
2013-01-14 03:53:00,-8.9,-14.0,100.00,East,90,3.1,4.5,66,0.00,,,0.00,fowsr,2013-01-14 10:53:00,
2013-01-14 03:54:00,-8.9,-14.0,100.00,East,90,3.1,4.5,66,0.00,,,0.00,fowsr,2013-01-14 10:54:00,
2013-01-14 03:55:00,-8.1,-13.2,30.07,East,90,3.1,3.8,67,0.00,,,0.00,fowsr,2013-01-14 10:55:00,
2013-01-14 03:58:00,-9.2,-14.4,100.00,East,90,3.8,5.4,66,0.00,,,0.00,fowsr,2013-01-14 10:58:00,
2013-01-14 03:59:00,-9.2,-14.4,100.00,East,90,3.8,5.4,66,0.00,,,0.00,fowsr,2013-01-14 10:59:00,
2013-01-14 04:00:00,-9.2,-14.4,30.07,East,90,3.8,5.4,66,0.00,,,0.00,fowsr,2013-01-14 11:00:00,
2013-01-14 04:03:00,-10.1,-15.2,100.00,East,90,4.5,5.4,66,0.00,,,0.00,fowsr,2013-01-14 11:03:00,
2013-01-14 04:04:00,-10.1,-15.2,100.00,East,90,4.5,5.4,66,0.00,,,0.00,fowsr,2013-01-14 11:04:00,
2013-01-14 04:05:00,-9.2,-14.4,30.06,East,90,3.8,5.4,66,0.00,,,0.00,fowsr,2013-01-14 11:05:00,
2013-01-14 04:08:00,-10.1,-15.2,100.00,East,90,3.1,4.5,66,0.00,,,0.00,fowsr,2013-01-14 11:08:00,
2013-01-14 04:09:00,-10.1,-15.2,100.00,East,90,3.1,4.5,66,0.00,,,0.00,fowsr,2013-01-14 11:09:00,
2013-01-14 04:10:00,-9.9,-15.1,30.06,SE,135,3.1,4.5,66,0.00,,,0.00,fowsr,2013-01-14 11:10:00,
2013-01-14 04:13:00,-10.5,-15.6,100.00,East,90,5.4,6.0,66,0.00,,,0.00,fowsr,2013-01-14 11:13:00,
2013-01-14 04:14:00,-10.5,-15.6,100.00,East,90,5.4,6.0,66,0.00,,,0.00,fowsr,2013-01-14 11:14:00,
2013-01-14 04:15:00,-10.3,-15.4,30.06,NNE,22,3.1,4.5,66,0.00,,,0.00,fowsr,2013-01-14 11:15:00,
2013-01-14 04:18:00,-10.8,-15.9,100.00,East,90,3.8,4.5,66,0.00,,,0.00,fowsr,2013-01-14 11:18:00,
2013-01-14 04:19:00,-10.8,-15.9,100.00,East,90,3.8,4.5,66,0.00,,,0.00,fowsr,2013-01-14 11:19:00,
2013-01-14 04:20:00,-10.8,-16.1,30.06,East,90,4.5,5.4,65,0.00,,,0.00,fowsr,2013-01-14 11:20:00,
2013-01-14 04:23:00,-10.7,-15.8,100.00,East,90,3.1,3.8,66,0.00,,,0.00,fowsr,2013-01-14 11:23:00,
2013-01-14 04:24:00,-10.7,-15.8,100.00,East,90,3.1,3.8,66,0.00,,,0.00,fowsr,2013-01-14 11:24:00,
2013-01-14 04:25:00,-10.7,-15.8,30.06,NE,45,3.8,4.5,66,0.00,,,0.00,fowsr,2013-01-14 11:25:00,
2013-01-14 04:28:00,-11.0,-16.1,100.00,East,90,3.1,3.8,66,0.00,,,0.00,fowsr,2013-01-14 11:28:00,
2013-01-14 04:29:00,-11.0,-16.1,100.00,East,90,3.1,3.8,66,0.00,,,0.00,fowsr,2013-01-14 11:29:00,
2013-01-14 04:30:00,-10.8,-15.9,30.06,East,90,3.1,4.5,66,0.00,,,0.00,fowsr,2013-01-14 11:30:00,
2013-01-14 04:33:00,-10.8,-15.9,100.00,East,90,3.8,5.4,66,0.00,,,0.00,fowsr,2013-01-14 11:33:00,
2013-01-14 04:34:00,-10.8,-15.9,100.00,East,90,3.8,5.4,66,0.00,,,0.00,fowsr,2013-01-14 11:34:00,
2013-01-14 04:35:00,-10.8,-15.9,30.06,East,90,3.1,4.5,66,0.00,,,0.00,fowsr,2013-01-14 11:35:00,
2013-01-14 04:38:00,-11.6,-16.8,100.00,East,90,4.5,5.4,65,0.00,,,0.00,fowsr,2013-01-14 11:38:00,
2013-01-14 04:39:00,-11.6,-16.8,100.00,East,90,4.5,5.4,65,0.00,,,0.00,fowsr,2013-01-14 11:39:00,
2013-01-14 04:40:00,-11.0,-16.1,30.06,East,90,3.8,5.4,66,0.00,,,0.00,fowsr,2013-01-14 11:40:00,
2013-01-14 04:43:00,-12.1,-17.3,100.00,East,90,3.8,5.4,65,0.00,,,0.00,fowsr,2013-01-14 11:43:00,
2013-01-14 04:44:00,-12.1,-17.3,100.00,East,90,3.8,5.4,65,0.00,,,0.00,fowsr,2013-01-14 11:44:00,
2013-01-14 04:45:00,-11.9,-17.1,30.06,East,90,4.5,6.0,65,0.00,,,0.00,fowsr,2013-01-14 11:45:00,
2013-01-14 04:48:00,-12.1,-17.1,100.00,East,90,5.4,6.9,66,0.00,,,0.00,fowsr,2013-01-14 11:48:00,
2013-01-14 04:49:00,-12.1,-17.1,100.00,East,90,5.4,6.9,66,0.00,,,0.00,fowsr,2013-01-14 11:49:00,
2013-01-14 04:50:00,-12.1,-17.3,30.06,East,90,6.0,7.6,65,0.00,,,0.00,fowsr,2013-01-14 11:50:00,
2013-01-14 04:53:00,-11.2,-16.1,100.00,East,90,4.5,5.4,67,0.00,,,0.00,fowsr,2013-01-14 11:53:00,
2013-01-14 04:54:00,-11.2,-16.1,100.00,East,90,4.5,5.4,67,0.00,,,0.00,fowsr,2013-01-14 11:54:00,
2013-01-14 04:55:00,-11.7,-16.8,30.06,East,90,4.5,5.4,66,0.00,,,0.00,fowsr,2013-01-14 11:55:00,
2013-01-14 04:58:00,-11.0,-15.9,100.00,East,90,3.8,4.5,67,0.00,,,0.00,fowsr,2013-01-14 11:58:00,
2013-01-14 04:59:00,-11.0,-15.9,100.00,East,90,3.8,4.5,67,0.00,,,0.00,fowsr,2013-01-14 11:59:00,
2013-01-14 05:03:00,-11.6,-16.6,100.00,ENE,67,1.6,2.2,66,0.00,,,0.00,fowsr,2013-01-14 12:03:00,
2013-01-14 05:04:00,-11.6,-16.6,100.00,ENE,67,1.6,2.2,66,0.00,,,0.00,fowsr,2013-01-14 12:04:00,
2013-01-14 05:08:00,-11.6,-16.6,100.00,NE,45,3.1,4.5,66,0.00,,,0.00,fowsr,2013-01-14 12:08:00,
2013-01-14 05:09:00,-11.6,-16.6,100.00,NE,45,3.1,4.5,66,0.00,,,0.00,fowsr,2013-01-14 12:09:00,
2013-01-14 05:13:00,-11.2,-16.1,100.00,ESE,112,1.6,2.2,67,0.00,,,0.00,fowsr,2013-01-14 12:13:00,
2013-01-14 05:14:00,-11.2,-16.1,100.00,ESE,112,1.6,2.2,67,0.00,,,0.00,fowsr,2013-01-14 12:14:00,
2013-01-14 05:18:00,-11.7,-16.8,100.00,SE,135,3.1,3.8,66,0.00,,,0.00,fowsr,2013-01-14 12:18:00,
2013-01-14 05:19:00,-11.7,-16.8,100.00,SE,135,3.1,3.8,66,0.00,,,0.00,fowsr,2013-01-14 12:19:00,
2013-01-14 05:23:00,-12.5,-17.7,100.00,SE,135,2.2,4.5,65,0.00,,,0.00,fowsr,2013-01-14 12:23:00,
2013-01-14 05:24:00,-12.5,-17.7,100.00,SE,135,2.2,4.5,65,0.00,,,0.00,fowsr,2013-01-14 12:24:00,
2013-01-14 05:28:00,-12.8,-18.0,100.00,SE,135,2.2,3.8,65,0.00,,,0.00,fowsr,2013-01-14 12:28:00,
2013-01-14 05:29:00,-12.8,-18.0,100.00,SE,135,2.2,3.8,65,0.00,,,0.00,fowsr,2013-01-14 12:29:00,
2013-01-14 05:33:00,-13.4,-18.7,100.00,East,90,3.8,5.4,64,0.00,,,0.00,fowsr,2013-01-14 12:33:00,
2013-01-14 05:34:00,-13.4,-18.7,100.00,East,90,3.8,5.4,64,0.00,,,0.00,fowsr,2013-01-14 12:34:00,
2013-01-14 05:38:00,-13.2,-18.3,100.00,East,90,3.1,4.5,65,0.00,,,0.00,fowsr,2013-01-14 12:38:00,
2013-01-14 05:39:00,-13.2,-18.3,100.00,East,90,3.1,4.5,65,0.00,,,0.00,fowsr,2013-01-14 12:39:00,
2013-01-14 05:43:00,-12.8,-18.0,100.00,SE,135,3.1,3.8,65,0.00,,,0.00,fowsr,2013-01-14 12:43:00,
2013-01-14 05:44:00,-12.8,-18.0,100.00,SE,135,3.1,3.8,65,0.00,,,0.00,fowsr,2013-01-14 12:44:00,
2013-01-14 05:48:00,-13.4,-18.5,100.00,SE,135,1.6,2.2,65,0.00,,,0.00,fowsr,2013-01-14 12:48:00,
2013-01-14 05:49:00,-13.4,-18.5,100.00,SE,135,1.6,2.2,65,0.00,,,0.00,fowsr,2013-01-14 12:49:00,
2013-01-14 05:53:00,-13.4,-18.5,100.00,SE,135,1.6,3.1,65,0.00,,,0.00,fowsr,2013-01-14 12:53:00,
2013-01-14 05:54:00,-13.4,-18.5,100.00,SE,135,1.6,3.1,65,0.00,,,0.00,fowsr,2013-01-14 12:54:00,
2013-01-14 05:58:00,-13.4,-18.5,100.00,East,90,3.1,3.8,65,0.00,,,0.00,fowsr,2013-01-14 12:58:00,
2013-01-14 05:59:00,-13.4,-18.5,100.00,East,90,3.1,3.8,65,0.00,,,0.00,fowsr,2013-01-14 12:59:00,
2013-01-14 06:03:00,-14.3,-19.6,100.00,East,90,3.8,5.4,64,0.00,,,0.00,fowsr,2013-01-14 13:03:00,
2013-01-14 06:04:00,-14.3,-19.6,100.00,East,90,3.8,5.4,64,0.00,,,0.00,fowsr,2013-01-14 13:04:00,
2013-01-14 06:08:00,-13.5,-18.7,100.00,East,90,2.2,3.1,65,0.00,,,0.00,fowsr,2013-01-14 13:08:00,
2013-01-14 06:09:00,-13.5,-18.7,100.00,East,90,2.2,3.1,65,0.00,,,0.00,fowsr,2013-01-14 13:09:00,
2013-01-14 06:13:00,-13.7,-18.9,100.00,ESE,112,3.8,5.4,65,0.00,,,0.00,fowsr,2013-01-14 13:13:00,
2013-01-14 06:14:00,-13.7,-18.9,100.00,ESE,112,3.8,5.4,65,0.00,,,0.00,fowsr,2013-01-14 13:14:00,
2013-01-14 06:18:00,-14.6,-19.9,100.00,East,90,3.8,4.5,64,0.00,,,0.00,fowsr,2013-01-14 13:18:00,
2013-01-14 06:19:00,-14.6,-19.9,100.00,East,90,3.8,4.5,64,0.00,,,0.00,fowsr,2013-01-14 13:19:00,
2013-01-14 06:23:00,-15.0,-20.2,100.00,East,90,3.8,5.4,64,0.00,,,0.00,fowsr,2013-01-14 13:23:00,
2013-01-14 06:24:00,-15.0,-20.2,100.00,East,90,3.8,5.4,64,0.00,,,0.00,fowsr,2013-01-14 13:24:00,
2013-01-14 06:28:00,-15.0,-20.1,100.00,East,90,6.0,6.9,65,0.00,,,0.00,fowsr,2013-01-14 13:28:00,
2013-01-14 06:29:00,-15.0,-20.1,100.00,East,90,6.0,6.9,65,0.00,,,0.00,fowsr,2013-01-14 13:29:00,
2013-01-14 06:33:00,-14.8,-19.9,100.00,ENE,67,3.1,4.5,65,0.00,,,0.00,fowsr,2013-01-14 13:33:00,
2013-01-14 06:34:00,-14.8,-19.9,100.00,ENE,67,3.1,4.5,65,0.00,,,0.00,fowsr,2013-01-14 13:34:00,
2013-01-14 06:38:00,-13.9,-18.9,100.00,East,90,1.6,3.1,66,0.00,,,0.00,fowsr,2013-01-14 13:38:00,
2013-01-14 06:39:00,-13.9,-18.9,100.00,East,90,1.6,3.1,66,0.00,,,0.00,fowsr,2013-01-14 13:39:00,
2013-01-14 06:43:00,-14.3,-19.4,100.00,East,90,3.1,4.5,65,0.00,,,0.00,fowsr,2013-01-14 13:43:00,
2013-01-14 06:44:00,-14.3,-19.4,100.00,East,90,3.1,4.5,65,0.00,,,0.00,fowsr,2013-01-14 13:44:00,
2013-01-14 06:48:00,-14.8,-19.9,100.00,East,90,3.8,4.5,65,0.00,,,0.00,fowsr,2013-01-14 13:48:00,
2013-01-14 06:49:00,-14.8,-19.9,100.00,East,90,3.8,4.5,65,0.00,,,0.00,fowsr,2013-01-14 13:49:00,
2013-01-14 06:53:00,-15.2,-20.4,100.00,East,90,3.8,4.5,64,0.00,,,0.00,fowsr,2013-01-14 13:53:00,
2013-01-14 06:54:00,-15.2,-20.4,100.00,East,90,3.8,4.5,64,0.00,,,0.00,fowsr,2013-01-14 13:54:00,
2013-01-14 06:58:00,-15.2,-20.4,100.00,East,90,4.5,5.4,64,0.00,,,0.00,fowsr,2013-01-14 13:58:00,
2013-01-14 06:59:00,-15.2,-20.4,100.00,East,90,4.5,5.4,64,0.00,,,0.00,fowsr,2013-01-14 13:59:00,
2013-01-14 07:03:00,-15.9,-21.1,100.00,East,90,3.8,5.4,64,0.00,,,0.00,fowsr,2013-01-14 14:03:00,
2013-01-14 07:04:00,-15.9,-21.1,100.00,East,90,3.8,5.4,64,0.00,,,0.00,fowsr,2013-01-14 14:04:00,
2013-01-14 07:08:00,-15.5,-20.6,100.00,East,90,3.1,4.5,65,0.00,,,0.00,fowsr,2013-01-14 14:08:00,
2013-01-14 07:09:00,-15.5,-20.6,100.00,East,90,3.1,4.5,65,0.00,,,0.00,fowsr,2013-01-14 14:09:00,
2013-01-14 07:13:00,-15.2,-20.2,100.00,East,90,2.2,3.8,65,0.00,,,0.00,fowsr,2013-01-14 14:13:00,
2013-01-14 07:14:00,-15.2,-20.2,100.00,East,90,2.2,3.8,65,0.00,,,0.00,fowsr,2013-01-14 14:14:00,
2013-01-14 07:18:00,-14.8,-19.9,100.00,SE,135,1.6,3.1,65,0.00,,,0.00,fowsr,2013-01-14 14:18:00,
2013-01-14 07:19:00,-14.8,-19.9,96.59,SE,135,1.6,3.1,65,0.00,,,0.00,fowsr,2013-01-14 14:19:00,
2013-01-14 07:23:00,-14.8,-19.9,100.00,NE,45,4.5,6.0,65,0.00,,,0.00,fowsr,2013-01-14 14:23:00,
2013-01-14 07:24:00,-14.8,-19.9,91.47,NE,45,4.5,6.0,65,0.00,,,0.00,fowsr,2013-01-14 14:24:00,
2013-01-14 07:28:00,-15.0,-20.1,100.00,East,90,5.4,6.9,65,0.00,,,0.00,fowsr,2013-01-14 14:28:00,
2013-01-14 07:29:00,-15.0,-20.1,86.36,East,90,5.4,6.9,65,0.00,,,0.00,fowsr,2013-01-14 14:29:00,
2013-01-14 07:33:00,-14.6,-19.7,100.00,East,90,3.8,6.0,65,0.00,,,0.00,fowsr,2013-01-14 14:33:00,
2013-01-14 07:34:00,-14.6,-19.7,81.24,East,90,3.8,6.0,65,0.00,,,0.00,fowsr,2013-01-14 14:34:00,
2013-01-14 07:38:00,-14.3,-19.4,100.00,East,90,4.5,5.4,65,0.00,,,0.00,fowsr,2013-01-14 14:38:00,
2013-01-14 07:39:00,-14.3,-19.4,76.13,East,90,4.5,5.4,65,0.00,,,0.00,fowsr,2013-01-14 14:39:00,
2013-01-14 07:43:00,-14.3,-19.4,100.00,East,90,4.5,5.4,65,0.00,,,0.00,fowsr,2013-01-14 14:43:00,
2013-01-14 07:44:00,-14.3,-19.4,71.01,East,90,4.5,5.4,65,0.00,,,0.00,fowsr,2013-01-14 14:44:00,
2013-01-14 07:48:00,-14.1,-19.2,100.00,East,90,4.5,6.9,65,0.00,,,0.00,fowsr,2013-01-14 14:48:00,
2013-01-14 07:49:00,-14.1,-19.2,65.90,East,90,4.5,6.9,65,0.00,,,0.00,fowsr,2013-01-14 14:49:00,
2013-01-14 07:53:00,-13.2,-18.2,100.00,East,90,3.8,4.5,66,0.00,,,0.00,fowsr,2013-01-14 14:53:00,
2013-01-14 07:54:00,-13.2,-18.2,60.79,East,90,3.8,4.5,66,0.00,,,0.00,fowsr,2013-01-14 14:54:00,
2013-01-14 07:58:00,-13.0,-18.0,100.00,East,90,3.1,4.5,66,0.00,,,0.00,fowsr,2013-01-14 14:58:00,
2013-01-14 07:59:00,-13.0,-18.0,55.67,East,90,3.1,4.5,66,0.00,,,0.00,fowsr,2013-01-14 14:59:00,
2013-01-14 08:03:00,-12.3,-17.3,100.00,East,90,3.1,3.8,66,0.00,,,0.00,fowsr,2013-01-14 15:03:00,
2013-01-14 08:04:00,-12.3,-17.3,50.56,East,90,3.1,3.8,66,0.00,,,0.00,fowsr,2013-01-14 15:04:00,
2013-01-14 08:08:00,-11.9,-17.0,100.00,East,90,3.1,4.5,66,0.00,,,0.00,fowsr,2013-01-14 15:08:00,
2013-01-14 08:09:00,-11.9,-17.0,45.45,East,90,3.1,4.5,66,0.00,,,0.00,fowsr,2013-01-14 15:09:00,
2013-01-14 08:13:00,-11.2,-16.3,100.00,East,90,3.8,5.4,66,0.00,,,0.00,fowsr,2013-01-14 15:13:00,
2013-01-14 08:14:00,-11.2,-16.3,40.33,East,90,3.8,5.4,66,0.00,,,0.00,fowsr,2013-01-14 15:14:00,
2013-01-14 08:18:00,-10.5,-15.6,100.00,East,90,3.1,4.5,66,0.00,,,0.00,fowsr,2013-01-14 15:18:00,
2013-01-14 08:19:00,-10.5,-15.6,35.22,East,90,3.1,4.5,66,0.00,,,0.00,fowsr,2013-01-14 15:19:00,
2013-01-14 08:23:00,-9.9,-15.1,100.00,East,90,1.6,3.1,66,0.00,,,0.00,fowsr,2013-01-14 15:23:00,
2013-01-14 08:24:00,-9.9,-15.1,81.25,East,90,1.6,3.1,66,0.00,,,0.00,fowsr,2013-01-14 15:24:00,
2013-01-14 08:28:00,-9.4,-14.6,100.00,East,90,0.7,1.6,66,0.00,,,0.00,fowsr,2013-01-14 15:28:00,
2013-01-14 08:29:00,-9.4,-14.6,76.13,East,90,0.7,1.6,66,0.00,,,0.00,fowsr,2013-01-14 15:29:00,
2013-01-14 08:30:00,-9.9,-15.1,30.10,East,90,1.6,3.1,66,0.00,,,0.00,fowsr,2013-01-14 15:30:00,
2013-01-14 08:33:00,-8.5,-13.5,100.00,East,90,0.0,0.7,67,0.00,,,0.00,fowsr,2013-01-14 15:33:00,
2013-01-14 08:34:00,-8.5,-13.5,71.02,East,90,0.0,0.7,67,0.00,,,0.00,fowsr,2013-01-14 15:34:00,
2013-01-14 08:38:00,-8.5,-13.5,30.10,East,90,0.0,0.7,67,0.00,,,0.00,fowsr,2013-01-14 15:38:00,
2013-01-14 08:39:00,-7.6,-12.7,65.90,East,90,0.7,1.6,67,0.00,,,0.00,fowsr,2013-01-14 15:39:00,
2013-01-14 08:43:00,-6.5,-11.6,100.00,East,90,0.0,0.7,67,0.00,,,0.00,fowsr,2013-01-14 15:43:00,
2013-01-14 08:44:00,-7.4,-12.5,30.10,East,90,0.7,1.6,67,0.00,,,0.00,fowsr,2013-01-14 15:44:00,
2013-01-14 08:48:00,-5.3,-10.4,100.00,East,90,1.6,3.1,67,0.00,,,0.00,fowsr,2013-01-14 15:48:00,
2013-01-14 08:49:00,-6.2,-11.3,30.10,SE,135,1.6,2.2,67,0.00,,,0.00,fowsr,2013-01-14 15:49:00,
2013-01-14 08:53:00,-4.2,-9.2,100.00,East,90,0.7,2.2,68,0.00,,,0.00,fowsr,2013-01-14 15:53:00,
2013-01-14 08:54:00,-5.1,-10.2,30.10,ESE,112,1.6,3.1,67,0.00,,,0.00,fowsr,2013-01-14 15:54:00,
2013-01-14 08:58:00,-3.8,-8.8,100.00,SE,135,0.7,2.2,68,0.00,,,0.00,fowsr,2013-01-14 15:58:00,
2013-01-14 08:59:00,-4.0,-9.0,30.10,East,90,1.6,2.2,68,0.00,,,0.00,fowsr,2013-01-14 15:59:00,
2013-01-14 09:03:00,-2.0,-7.1,100.00,SE,135,0.0,0.0,68,0.00,,,0.00,fowsr,2013-01-14 16:03:00,
2013-01-14 09:04:00,-3.8,-8.8,30.10,SE,135,0.7,2.2,68,0.00,,,0.00,fowsr,2013-01-14 16:04:00,
2013-01-14 09:08:00,-1.1,-6.3,100.00,NE,45,0.0,0.0,68,0.00,,,0.00,fowsr,2013-01-14 16:08:00,
2013-01-14 09:09:00,-1.8,-7.0,30.10,SE,135,0.0,0.0,68,0.00,,,0.00,fowsr,2013-01-14 16:09:00,
2013-01-14 09:13:00,-0.6,-5.7,100.00,North,0,0.7,2.2,68,0.00,,,0.00,fowsr,2013-01-14 16:13:00,
2013-01-14 09:14:00,-0.6,-5.7,100.00,North,0,0.7,2.2,68,0.00,,,0.00,fowsr,2013-01-14 16:14:00,
2013-01-14 09:17:00,-0.9,-6.1,30.09,North,0,0.0,1.6,68,0.00,,,0.00,fowsr,2013-01-14 16:17:00,
2013-01-14 09:18:00,-0.2,-5.6,100.00,NW,315,0.7,1.6,67,0.00,,,0.00,fowsr,2013-01-14 16:18:00,
2013-01-14 09:19:00,-0.2,-5.6,100.00,NW,315,0.7,1.6,67,0.00,,,0.00,fowsr,2013-01-14 16:19:00,
2013-01-14 09:23:00,0.0,-5.6,100.00,West,270,0.0,0.7,66,0.00,,,0.00,fowsr,2013-01-14 16:23:00,
2013-01-14 09:24:00,0.0,-5.6,100.00,West,270,0.0,0.7,66,0.00,,,0.00,fowsr,2013-01-14 16:24:00,
2013-01-14 09:25:00,0.0,-5.6,30.09,West,270,0.7,2.2,66,0.00,,,0.00,fowsr,2013-01-14 16:25:00,
2013-01-14 09:28:00,0.9,-4.8,100.00,West,270,0.0,0.7,66,0.00,,,0.00,fowsr,2013-01-14 16:28:00,
2013-01-14 09:29:00,0.9,-4.8,100.00,West,270,0.0,0.7,66,0.00,,,0.00,fowsr,2013-01-14 16:29:00,
2013-01-14 09:30:00,0.3,-5.3,30.09,West,270,0.0,1.6,66,0.00,,,0.00,fowsr,2013-01-14 16:30:00,
2013-01-14 09:33:00,1.4,-4.5,100.00,North,0,0.7,3.1,65,0.00,,,0.00,fowsr,2013-01-14 16:33:00,
2013-01-14 09:34:00,1.4,-4.5,100.00,North,0,0.7,3.1,65,0.00,,,0.00,fowsr,2013-01-14 16:34:00,
2013-01-14 09:35:00,1.0,-4.6,30.09,West,270,0.0,0.0,66,0.00,,,0.00,fowsr,2013-01-14 16:35:00,
2013-01-14 09:38:00,1.8,-4.5,100.00,NNW,337,2.2,3.8,63,0.00,,,0.00,fowsr,2013-01-14 16:38:00,
2013-01-14 09:39:00,1.8,-4.5,100.00,NNW,337,2.2,3.8,63,0.00,,,0.00,fowsr,2013-01-14 16:39:00,
2013-01-14 09:40:00,1.6,-4.3,30.09,North,0,1.6,2.2,65,0.00,,,0.00,fowsr,2013-01-14 16:40:00,
2013-01-14 09:43:00,1.9,-4.8,100.00,North,0,3.1,3.8,61,0.00,,,0.00,fowsr,2013-01-14 16:43:00,
2013-01-14 09:44:00,1.9,-4.8,100.00,North,0,3.1,3.8,61,0.00,,,0.00,fowsr,2013-01-14 16:44:00,
2013-01-14 09:45:00,1.9,-4.6,30.09,North,0,3.1,3.8,62,0.00,,,0.00,fowsr,2013-01-14 16:45:00,
2013-01-14 09:48:00,2.1,-4.8,100.00,North,0,2.2,3.8,60,0.00,,,0.00,fowsr,2013-01-14 16:48:00,
2013-01-14 09:49:00,2.1,-4.8,100.00,North,0,2.2,3.8,60,0.00,,,0.00,fowsr,2013-01-14 16:49:00,
2013-01-14 09:50:00,1.9,-5.0,30.09,NE,45,1.6,2.2,60,0.00,,,0.00,fowsr,2013-01-14 16:50:00,
2013-01-14 09:53:00,2.7,-4.3,100.00,North,0,0.0,0.7,60,0.00,,,0.00,fowsr,2013-01-14 16:53:00,
2013-01-14 09:54:00,2.7,-4.3,100.00,North,0,0.0,0.7,60,0.00,,,0.00,fowsr,2013-01-14 16:54:00,
2013-01-14 09:55:00,2.3,-4.7,30.08,North,0,1.6,3.8,60,0.00,,,0.00,fowsr,2013-01-14 16:55:00,
2013-01-14 09:58:00,3.0,-4.0,100.00,North,0,0.0,0.0,60,0.00,,,0.00,fowsr,2013-01-14 16:58:00,
2013-01-14 09:59:00,3.0,-4.0,100.00,North,0,0.0,0.0,60,0.00,,,0.00,fowsr,2013-01-14 16:59:00,
2013-01-14 10:00:00,3.0,-4.0,30.08,North,0,0.0,0.0,60,0.00,,,0.00,fowsr,2013-01-14 17:00:00,
2013-01-14 10:03:00,3.7,-3.5,100.00,North,0,0.0,1.6,59,0.00,,,0.00,fowsr,2013-01-14 17:03:00,
2013-01-14 10:04:00,3.7,-3.5,100.00,North,0,0.0,1.6,59,0.00,,,0.00,fowsr,2013-01-14 17:04:00,
2013-01-14 10:05:00,3.0,-4.0,30.08,North,0,0.0,0.0,60,0.00,,,0.00,fowsr,2013-01-14 17:05:00,
2013-01-14 10:08:00,5.0,-2.1,100.00,West,270,1.6,2.2,60,0.00,,,0.00,fowsr,2013-01-14 17:08:00,
2013-01-14 10:09:00,5.0,-2.1,100.00,West,270,1.6,2.2,60,0.00,,,0.00,fowsr,2013-01-14 17:09:00,
2013-01-14 10:10:00,4.1,-3.2,30.09,South,180,0.7,2.2,59,0.00,,,0.00,fowsr,2013-01-14 17:10:00,
2013-01-14 10:13:00,6.1,-1.1,100.00,South,180,0.7,1.6,60,0.00,,,0.00,fowsr,2013-01-14 17:13:00,
2013-01-14 10:14:00,6.1,-1.1,100.00,South,180,0.7,1.6,60,0.00,,,0.00,fowsr,2013-01-14 17:14:00,
2013-01-14 10:15:00,5.4,-1.8,30.09,SW,225,0.7,2.2,60,0.00,,,0.00,fowsr,2013-01-14 17:15:00,
2013-01-14 10:18:00,7.2,-0.3,100.00,SW,225,0.0,0.0,59,0.00,,,0.00,fowsr,2013-01-14 17:18:00,
2013-01-14 10:19:00,7.2,-0.3,100.00,SW,225,0.0,0.0,59,0.00,,,0.00,fowsr,2013-01-14 17:19:00,
2013-01-14 10:20:00,6.6,-0.6,30.09,SW,225,0.7,1.6,60,0.00,,,0.00,fowsr,2013-01-14 17:20:00,
2013-01-14 10:23:00,7.5,-0.2,100.00,East,90,1.6,3.1,58,0.00,,,0.00,fowsr,2013-01-14 17:23:00,
2013-01-14 10:24:00,7.5,-0.2,100.00,East,90,1.6,3.1,58,0.00,,,0.00,fowsr,2013-01-14 17:24:00,
2013-01-14 10:25:00,7.3,-0.1,30.09,South,180,0.0,1.6,59,0.00,,,0.00,fowsr,2013-01-14 17:25:00,
2013-01-14 10:28:00,7.7,-0.5,100.00,NNW,337,0.0,1.6,56,0.00,,,0.00,fowsr,2013-01-14 17:28:00,
2013-01-14 10:29:00,7.7,-0.5,100.00,NNW,337,0.0,1.6,56,0.00,,,0.00,fowsr,2013-01-14 17:29:00,
2013-01-14 10:30:00,7.7,-0.3,30.08,SE,135,0.0,0.7,57,0.00,,,0.00,fowsr,2013-01-14 17:30:00,
2013-01-14 10:33:00,7.7,-1.0,100.00,SW,225,0.0,2.2,54,0.00,,,0.00,fowsr,2013-01-14 17:33:00,
2013-01-14 10:34:00,7.7,-1.0,100.00,SW,225,0.0,2.2,54,0.00,,,0.00,fowsr,2013-01-14 17:34:00,
2013-01-14 10:35:00,7.9,-0.4,30.08,NW,315,1.6,4.5,56,0.00,,,0.00,fowsr,2013-01-14 17:35:00,
2013-01-14 10:38:00,8.4,0.2,100.00,SSW,202,0.7,2.2,56,0.00,,,0.00,fowsr,2013-01-14 17:38:00,
2013-01-14 10:39:00,8.4,0.2,100.00,SSW,202,0.7,2.2,56,0.00,,,0.00,fowsr,2013-01-14 17:39:00,
2013-01-14 10:43:00,9.1,0.8,100.00,SE,135,0.7,2.2,56,0.00,,,0.00,fowsr,2013-01-14 17:43:00,
2013-01-14 10:44:00,8.6,0.3,30.08,South,180,2.2,3.8,56,0.00,,,0.00,fowsr,2013-01-14 17:44:00,
2013-01-14 10:48:00,10.0,1.4,100.00,SE,135,2.2,4.5,55,0.00,,,0.00,fowsr,2013-01-14 17:48:00,
2013-01-14 10:49:00,9.5,1.2,30.08,SE,135,2.2,3.8,56,0.00,,,0.00,fowsr,2013-01-14 17:49:00,
2013-01-14 10:53:00,10.6,1.7,100.00,South,180,1.6,3.1,54,0.00,,,0.00,fowsr,2013-01-14 17:53:00,
2013-01-14 10:54:00,10.0,1.4,30.07,SE,135,3.1,3.8,55,0.00,,,0.00,fowsr,2013-01-14 17:54:00,
2013-01-14 10:58:00,10.8,1.8,100.00,South,180,2.2,3.1,54,0.00,,,0.00,fowsr,2013-01-14 17:58:00,
2013-01-14 10:59:00,10.8,1.8,30.07,SE,135,2.2,3.1,54,0.00,,,0.00,fowsr,2013-01-14 17:59:00,
2013-01-14 11:03:00,11.8,2.6,100.00,South,180,0.7,1.6,53,0.00,,,0.00,fowsr,2013-01-14 18:03:00,
2013-01-14 11:04:00,10.8,1.8,30.07,South,180,2.2,3.1,54,0.00,,,0.00,fowsr,2013-01-14 18:04:00,
2013-01-14 11:08:00,10.9,0.6,100.00,NE,45,0.7,2.2,49,0.00,,,0.00,fowsr,2013-01-14 18:08:00,
2013-01-14 11:09:00,11.8,2.3,30.07,NE,45,0.7,1.6,52,0.00,,,0.00,fowsr,2013-01-14 18:09:00,
2013-01-14 11:13:00,10.8,1.0,100.00,NE,45,0.0,0.7,51,0.00,,,0.00,fowsr,2013-01-14 18:13:00,
2013-01-14 11:14:00,10.8,0.8,30.06,NE,45,0.0,1.6,50,0.00,,,0.00,fowsr,2013-01-14 18:14:00,
2013-01-14 11:18:00,11.8,2.6,100.00,SE,135,0.7,2.2,53,0.00,,,0.00,fowsr,2013-01-14 18:18:00,
2013-01-14 11:19:00,10.9,1.5,30.06,NE,45,0.0,0.7,52,0.00,,,0.00,fowsr,2013-01-14 18:19:00,
2013-01-14 11:23:00,12.7,3.1,100.00,SE,135,3.8,5.4,52,0.00,,,0.00,fowsr,2013-01-14 18:23:00,
2013-01-14 11:24:00,12.0,2.5,30.05,SSE,157,1.6,3.8,52,0.00,,,0.00,fowsr,2013-01-14 18:24:00,
2013-01-14 11:28:00,13.8,4.1,100.00,SSE,157,1.6,3.1,52,0.00,,,0.00,fowsr,2013-01-14 18:28:00,
2013-01-14 11:29:00,12.9,3.3,30.05,SSE,157,1.6,3.8,52,0.00,,,0.00,fowsr,2013-01-14 18:29:00,
2013-01-14 11:33:00,14.5,4.5,100.00,NW,315,0.0,1.6,51,0.00,,,0.00,fowsr,2013-01-14 18:33:00,
2013-01-14 11:34:00,13.8,4.1,30.05,SE,135,2.2,3.8,52,0.00,,,0.00,fowsr,2013-01-14 18:34:00,
2013-01-14 11:38:00,15.1,4.7,100.00,SE,135,1.6,3.1,50,0.00,,,0.00,fowsr,2013-01-14 18:38:00,
2013-01-14 11:39:00,14.7,4.7,30.04,South,180,0.0,1.6,51,0.00,,,0.00,fowsr,2013-01-14 18:39:00,
2013-01-14 11:43:00,15.6,4.9,100.00,SE,135,2.2,4.5,49,0.00,,,0.00,fowsr,2013-01-14 18:43:00,
2013-01-14 11:44:00,15.3,4.9,30.03,South,180,2.2,3.1,50,0.00,,,0.00,fowsr,2013-01-14 18:44:00,
2013-01-14 11:48:00,15.8,4.8,100.00,South,180,0.7,3.1,48,0.00,,,0.00,fowsr,2013-01-14 18:48:00,
2013-01-14 11:49:00,15.6,4.9,30.04,South,180,3.1,6.0,49,0.00,,,0.00,fowsr,2013-01-14 18:49:00,
2013-01-14 11:53:00,16.0,5.0,100.00,SE,135,0.7,3.1,48,0.00,,,0.00,fowsr,2013-01-14 18:53:00,
2013-01-14 11:54:00,15.8,4.8,30.03,SW,225,0.0,0.7,48,0.00,,,0.00,fowsr,2013-01-14 18:54:00,
2013-01-14 11:58:00,16.2,5.1,100.00,SE,135,2.2,3.8,48,0.00,,,0.00,fowsr,2013-01-14 18:58:00,
2013-01-14 11:59:00,16.2,5.1,30.03,SE,135,1.6,3.8,48,0.00,,,0.00,fowsr,2013-01-14 18:59:00,
2013-01-14 12:03:00,16.5,3.2,100.00,NW,315,10.7,16.8,41,0.00,,,0.00,fowsr,2013-01-14 19:03:00,
2013-01-14 12:04:00,16.2,5.1,30.03,SE,135,2.2,3.8,48,0.00,,,0.00,fowsr,2013-01-14 19:04:00,
2013-01-14 12:08:00,15.1,1.9,100.00,West,270,10.7,14.5,41,0.00,,,0.00,fowsr,2013-01-14 19:08:00,
2013-01-14 12:09:00,16.0,2.7,30.02,West,270,11.4,15.2,41,0.00,,,0.00,fowsr,2013-01-14 19:09:00,
2013-01-14 12:13:00,14.9,2.1,100.00,West,270,11.4,14.5,42,0.00,,,0.00,fowsr,2013-01-14 19:13:00,
2013-01-14 12:14:00,15.1,2.3,30.01,West,270,11.4,17.4,42,0.00,,,0.00,fowsr,2013-01-14 19:14:00,
2013-01-14 12:18:00,14.9,1.4,100.00,West,270,11.4,15.2,40,0.00,,,0.00,fowsr,2013-01-14 19:18:00,
2013-01-14 12:19:00,15.1,2.6,30.01,NW,315,10.7,14.5,43,0.00,,,0.00,fowsr,2013-01-14 19:19:00,
2013-01-14 12:23:00,14.5,1.1,100.00,NW,315,14.5,18.3,40,0.00,,,0.00,fowsr,2013-01-14 19:23:00,
2013-01-14 12:24:00,14.9,1.4,30.01,West,270,10.7,13.0,40,0.00,,,0.00,fowsr,2013-01-14 19:24:00,
2013-01-14 12:28:00,14.4,1.3,100.00,NW,315,15.2,19.0,41,0.00,,,0.00,fowsr,2013-01-14 19:28:00,
2013-01-14 12:29:00,14.5,1.4,30.01,West,270,12.1,15.9,41,0.00,,,0.00,fowsr,2013-01-14 19:29:00,
2013-01-14 12:33:00,14.5,2.1,100.00,NW,315,9.2,12.1,43,0.00,,,0.00,fowsr,2013-01-14 19:33:00,
2013-01-14 12:34:00,14.2,1.1,30.01,NW,315,13.0,15.2,41,0.00,,,0.00,fowsr,2013-01-14 19:34:00,
2013-01-14 12:38:00,14.9,1.8,100.00,NW,315,12.1,14.5,41,0.00,,,0.00,fowsr,2013-01-14 19:38:00,
2013-01-14 12:39:00,14.5,1.8,30.00,West,270,9.2,13.6,42,0.00,,,0.00,fowsr,2013-01-14 19:39:00,
2013-01-14 12:43:00,14.9,1.4,100.00,NW,315,13.6,17.4,40,0.00,,,0.00,fowsr,2013-01-14 19:43:00,
2013-01-14 12:44:00,14.9,1.8,30.00,NW,315,13.0,17.4,41,0.00,,,0.00,fowsr,2013-01-14 19:44:00,
2013-01-14 12:48:00,14.4,1.3,100.00,West,270,15.2,20.6,41,0.00,,,0.00,fowsr,2013-01-14 19:48:00,
2013-01-14 12:49:00,14.5,1.1,30.00,NW,315,15.2,18.3,40,0.00,,,0.00,fowsr,2013-01-14 19:49:00,
2013-01-14 12:53:00,14.7,1.6,100.00,NW,315,11.4,14.5,41,0.00,,,0.00,fowsr,2013-01-14 19:53:00,
2013-01-14 12:54:00,14.5,1.4,30.00,West,270,15.2,19.0,41,0.00,,,0.00,fowsr,2013-01-14 19:54:00,
2013-01-14 12:58:00,14.7,1.6,100.00,West,270,11.4,15.9,41,0.00,,,0.00,fowsr,2013-01-14 19:58:00,
2013-01-14 12:59:00,14.7,1.3,30.00,West,270,11.4,14.5,40,0.00,,,0.00,fowsr,2013-01-14 19:59:00,
2013-01-14 13:03:00,14.7,1.3,100.00,NW,315,13.0,18.3,40,0.00,,,0.00,fowsr,2013-01-14 20:03:00,
2013-01-14 13:04:00,14.7,1.6,30.00,West,270,11.4,15.9,41,0.00,,,0.00,fowsr,2013-01-14 20:04:00,
2013-01-14 13:08:00,14.5,1.8,100.00,West,270,12.1,18.3,42,0.00,,,0.00,fowsr,2013-01-14 20:08:00,
2013-01-14 13:09:00,14.5,1.1,30.00,NW,315,13.6,17.4,40,0.00,,,0.00,fowsr,2013-01-14 20:09:00,
2013-01-14 13:13:00,14.9,1.8,100.00,West,270,14.5,18.3,41,0.00,,,0.00,fowsr,2013-01-14 20:13:00,
2013-01-14 13:14:00,14.7,1.9,30.00,NW,315,16.8,22.1,42,0.00,,,0.00,fowsr,2013-01-14 20:14:00,
2013-01-14 13:18:00,15.3,2.1,100.00,West,270,15.9,20.6,41,0.00,,,0.00,fowsr,2013-01-14 20:18:00,
2013-01-14 13:19:00,15.1,1.9,30.00,West,270,13.6,19.0,41,0.00,,,0.00,fowsr,2013-01-14 20:19:00,
2013-01-14 13:23:00,15.1,1.6,100.00,NW,315,15.2,19.0,40,0.00,,,0.00,fowsr,2013-01-14 20:23:00,
2013-01-14 13:24:00,15.1,1.6,30.00,West,270,13.6,17.4,40,0.00,,,0.00,fowsr,2013-01-14 20:24:00,
2013-01-14 13:28:00,15.1,1.6,100.00,NW,315,15.2,19.0,40,0.00,,,0.00,fowsr,2013-01-14 20:28:00,
2013-01-14 13:29:00,15.1,1.6,30.00,NW,315,15.9,19.0,40,0.00,,,0.00,fowsr,2013-01-14 20:29:00,
2013-01-14 13:33:00,15.4,1.5,100.00,West,270,15.2,19.7,39,0.00,,,0.00,fowsr,2013-01-14 20:33:00,
2013-01-14 13:34:00,15.1,1.6,30.00,NW,315,15.9,20.6,40,0.00,,,0.00,fowsr,2013-01-14 20:34:00,
2013-01-14 13:38:00,15.3,1.0,100.00,West,270,17.4,20.6,38,0.00,,,0.00,fowsr,2013-01-14 20:38:00,
2013-01-14 13:39:00,15.4,1.5,30.00,West,270,15.9,20.6,39,0.00,,,0.00,fowsr,2013-01-14 20:39:00,
2013-01-14 13:43:00,15.4,1.9,100.00,WNW,292,13.0,18.3,40,0.00,,,0.00,fowsr,2013-01-14 20:43:00,
2013-01-14 13:44:00,15.3,1.0,30.00,NW,315,15.9,19.0,38,0.00,,,0.00,fowsr,2013-01-14 20:44:00,
2013-01-14 13:48:00,15.1,1.2,100.00,West,270,17.4,20.6,39,0.00,,,0.00,fowsr,2013-01-14 20:48:00,
2013-01-14 13:49:00,15.4,1.9,30.00,NW,315,16.8,25.9,40,0.00,,,0.00,fowsr,2013-01-14 20:49:00,
2013-01-14 13:53:00,15.3,1.4,100.00,West,270,13.6,17.4,39,0.00,,,0.00,fowsr,2013-01-14 20:53:00,
2013-01-14 13:54:00,15.1,1.2,30.00,NW,315,14.5,18.3,39,0.00,,,0.00,fowsr,2013-01-14 20:54:00,
2013-01-14 13:58:00,15.3,1.0,100.00,NW,315,14.5,20.6,38,0.00,,,0.00,fowsr,2013-01-14 20:58:00,
2013-01-14 13:59:00,15.3,1.0,30.00,NW,315,16.8,23.5,38,0.00,,,0.00,fowsr,2013-01-14 20:59:00,
2013-01-14 14:03:00,15.1,1.2,100.00,NW,315,15.9,21.3,39,0.00,,,0.00,fowsr,2013-01-14 21:03:00,
2013-01-14 14:04:00,15.3,1.0,30.00,NW,315,14.5,20.6,38,0.00,,,0.00,fowsr,2013-01-14 21:04:00,
2013-01-14 14:08:00,15.3,1.0,100.00,NW,315,19.7,23.5,38,0.00,,,0.00,fowsr,2013-01-14 21:08:00,
2013-01-14 14:09:00,15.1,1.2,30.00,West,270,15.2,21.3,39,0.00,,,0.00,fowsr,2013-01-14 21:09:00,
2013-01-14 14:13:00,15.4,1.5,100.00,West,270,16.8,20.6,39,0.00,,,0.00,fowsr,2013-01-14 21:13:00,
2013-01-14 14:14:00,15.3,1.0,30.00,NW,315,18.3,22.1,38,0.00,,,0.00,fowsr,2013-01-14 21:14:00,
2013-01-14 14:18:00,15.3,1.4,100.00,WNW,292,15.9,20.6,39,0.00,,,0.00,fowsr,2013-01-14 21:18:00,
2013-01-14 14:19:00,15.4,1.5,30.00,WNW,292,15.2,19.0,39,0.00,,,0.00,fowsr,2013-01-14 21:19:00,
2013-01-14 14:23:00,15.4,1.2,100.00,West,270,15.9,20.6,38,0.00,,,0.00,fowsr,2013-01-14 21:23:00,
2013-01-14 14:24:00,15.3,1.0,30.00,WNW,292,19.0,22.8,38,0.00,,,0.00,fowsr,2013-01-14 21:24:00,
2013-01-14 14:28:00,15.6,1.7,100.00,West,270,13.6,17.4,39,0.00,,,0.00,fowsr,2013-01-14 21:28:00,
2013-01-14 14:29:00,15.4,1.2,30.00,West,270,15.9,19.7,38,0.00,,,0.00,fowsr,2013-01-14 21:29:00,
2013-01-14 14:33:00,15.6,1.3,100.00,WNW,292,11.4,14.5,38,0.00,,,0.00,fowsr,2013-01-14 21:33:00,
2013-01-14 14:34:00,15.6,1.3,30.00,NW,315,14.5,18.3,38,0.00,,,0.00,fowsr,2013-01-14 21:34:00,
2013-01-14 14:38:00,15.1,0.9,100.00,WNW,292,14.5,18.3,38,0.00,,,0.00,fowsr,2013-01-14 21:38:00,
2013-01-14 14:39:00,15.1,0.9,100.00,WNW,292,14.5,18.3,38,0.00,,,0.00,fowsr,2013-01-14 21:39:00,
2013-01-14 14:40:00,15.4,1.2,30.01,NW,315,14.5,19.7,38,0.00,,,0.00,fowsr,2013-01-14 21:40:00,
2013-01-14 14:43:00,14.9,0.7,100.00,NW,315,13.6,19.0,38,0.00,,,0.00,fowsr,2013-01-14 21:43:00,
2013-01-14 14:44:00,14.9,0.7,100.00,NW,315,13.6,19.0,38,0.00,,,0.00,fowsr,2013-01-14 21:44:00,
2013-01-14 14:45:00,15.1,1.2,30.01,West,270,13.0,15.9,39,0.00,,,0.00,fowsr,2013-01-14 21:45:00,
2013-01-14 14:48:00,15.1,0.9,100.00,West,270,14.5,17.4,38,0.00,,,0.00,fowsr,2013-01-14 21:48:00,
2013-01-14 14:49:00,15.1,0.9,100.00,West,270,14.5,17.4,38,0.00,,,0.00,fowsr,2013-01-14 21:49:00,
2013-01-14 14:50:00,14.9,0.7,30.01,NW,315,12.1,15.2,38,0.00,,,0.00,fowsr,2013-01-14 21:50:00,
2013-01-14 14:53:00,15.1,0.9,100.00,NW,315,14.5,17.4,38,0.00,,,0.00,fowsr,2013-01-14 21:53:00,
2013-01-14 14:54:00,15.1,0.9,100.00,NW,315,14.5,17.4,38,0.00,,,0.00,fowsr,2013-01-14 21:54:00,
2013-01-14 14:55:00,15.1,0.9,30.01,NW,315,13.0,15.9,38,0.00,,,0.00,fowsr,2013-01-14 21:55:00,
2013-01-14 14:58:00,14.9,0.7,100.00,NW,315,13.6,16.8,38,0.00,,,0.00,fowsr,2013-01-14 21:58:00,
2013-01-14 14:59:00,14.9,0.7,100.00,NW,315,13.6,16.8,38,0.00,,,0.00,fowsr,2013-01-14 21:59:00,
2013-01-14 15:00:00,14.9,0.7,30.01,NW,315,13.6,16.8,38,0.00,,,0.00,fowsr,2013-01-14 22:00:00,
2013-01-14 15:03:00,15.3,1.0,100.00,West,270,13.6,15.9,38,0.00,,,0.00,fowsr,2013-01-14 22:03:00,
2013-01-14 15:04:00,15.3,1.0,100.00,West,270,13.6,15.9,38,0.00,,,0.00,fowsr,2013-01-14 22:04:00,
2013-01-14 15:05:00,14.9,0.7,30.01,NW,315,13.6,16.8,38,0.00,,,0.00,fowsr,2013-01-14 22:05:00,
2013-01-14 15:08:00,15.3,1.0,100.00,NW,315,13.0,16.8,38,0.00,,,0.00,fowsr,2013-01-14 22:08:00,
2013-01-14 15:09:00,15.3,1.0,100.00,NW,315,13.0,16.8,38,0.00,,,0.00,fowsr,2013-01-14 22:09:00,
2013-01-14 15:10:00,15.3,1.0,30.01,West,270,12.1,17.4,38,0.00,,,0.00,fowsr,2013-01-14 22:10:00,
2013-01-14 15:13:00,15.3,1.0,100.00,West,270,9.8,13.6,38,0.00,,,0.00,fowsr,2013-01-14 22:13:00,
2013-01-14 15:14:00,15.3,1.0,100.00,West,270,9.8,13.6,38,0.00,,,0.00,fowsr,2013-01-14 22:14:00,
2013-01-14 15:15:00,15.3,1.4,30.01,West,270,13.0,15.9,39,0.00,,,0.00,fowsr,2013-01-14 22:15:00,
2013-01-14 15:18:00,15.3,1.0,100.00,West,270,7.6,9.8,38,0.00,,,0.00,fowsr,2013-01-14 22:18:00,
2013-01-14 15:19:00,15.3,1.0,100.00,West,270,7.6,9.8,38,0.00,,,0.00,fowsr,2013-01-14 22:19:00,
2013-01-14 15:20:00,15.3,0.7,30.01,West,270,13.0,15.9,37,0.00,,,0.00,fowsr,2013-01-14 22:20:00,
2013-01-14 15:23:00,15.4,0.4,100.00,West,270,15.2,19.0,36,0.00,,,0.00,fowsr,2013-01-14 22:23:00,
2013-01-14 15:24:00,15.4,0.4,100.00,West,270,15.2,19.0,36,0.00,,,0.00,fowsr,2013-01-14 22:24:00,
2013-01-14 15:25:00,15.3,0.7,30.00,West,270,11.4,13.6,37,0.00,,,0.00,fowsr,2013-01-14 22:25:00,
2013-01-14 15:28:00,15.4,0.4,100.00,West,270,12.1,16.8,36,0.00,,,0.00,fowsr,2013-01-14 22:28:00,
2013-01-14 15:29:00,15.4,0.4,100.00,West,270,12.1,16.8,36,0.00,,,0.00,fowsr,2013-01-14 22:29:00,
2013-01-14 15:30:00,15.4,0.0,30.01,West,270,16.8,20.6,35,0.00,,,0.00,fowsr,2013-01-14 22:30:00,
2013-01-14 15:33:00,15.3,-0.1,100.00,West,270,13.0,15.9,35,0.00,,,0.00,fowsr,2013-01-14 22:33:00,
2013-01-14 15:34:00,15.3,-0.1,100.00,West,270,13.0,15.9,35,0.00,,,0.00,fowsr,2013-01-14 22:34:00,
2013-01-14 15:35:00,15.4,0.0,30.00,West,270,15.2,19.0,35,0.00,,,0.00,fowsr,2013-01-14 22:35:00,
2013-01-14 15:38:00,15.1,0.1,100.00,West,270,13.0,16.8,36,0.00,,,0.00,fowsr,2013-01-14 22:38:00,
2013-01-14 15:39:00,15.1,0.1,100.00,West,270,13.0,16.8,36,0.00,,,0.00,fowsr,2013-01-14 22:39:00,
2013-01-14 15:40:00,15.3,-0.1,30.01,West,270,13.0,15.2,35,0.00,,,0.00,fowsr,2013-01-14 22:40:00,
2013-01-14 15:43:00,14.9,-0.4,100.00,NW,315,13.6,15.9,35,0.00,,,0.00,fowsr,2013-01-14 22:43:00,
2013-01-14 15:44:00,14.9,-0.4,100.00,NW,315,13.6,15.9,35,0.00,,,0.00,fowsr,2013-01-14 22:44:00,
2013-01-14 15:45:00,15.1,-0.3,30.01,West,270,12.1,15.2,35,0.00,,,0.00,fowsr,2013-01-14 22:45:00,
2013-01-14 15:48:00,15.3,-0.1,100.00,West,270,11.4,13.6,35,0.00,,,0.00,fowsr,2013-01-14 22:48:00,
2013-01-14 15:49:00,15.3,-0.1,100.00,West,270,11.4,13.6,35,0.00,,,0.00,fowsr,2013-01-14 22:49:00,
2013-01-14 15:50:00,14.7,-0.6,30.01,West,270,11.4,15.9,35,0.00,,,0.00,fowsr,2013-01-14 22:50:00,
2013-01-14 15:53:00,14.4,-0.9,100.00,NW,315,11.4,15.2,35,0.00,,,0.00,fowsr,2013-01-14 22:53:00,
2013-01-14 15:54:00,14.4,-0.9,100.00,NW,315,11.4,15.2,35,0.00,,,0.00,fowsr,2013-01-14 22:54:00,
2013-01-14 15:55:00,14.5,-0.4,30.01,NW,315,9.2,15.2,36,0.00,,,0.00,fowsr,2013-01-14 22:55:00,
2013-01-14 15:58:00,14.4,-0.5,100.00,West,270,9.8,13.0,36,0.00,,,0.00,fowsr,2013-01-14 22:58:00,
2013-01-14 15:59:00,14.4,-0.5,100.00,West,270,9.8,13.0,36,0.00,,,0.00,fowsr,2013-01-14 22:59:00,
2013-01-14 16:00:00,14.4,-0.5,30.01,West,270,9.8,13.0,36,0.00,,,0.00,fowsr,2013-01-14 23:00:00,
2013-01-14 16:03:00,14.0,-0.5,100.00,West,270,9.2,11.4,37,0.00,,,0.00,fowsr,2013-01-14 23:03:00,
2013-01-14 16:04:00,14.0,-0.5,100.00,West,270,9.2,11.4,37,0.00,,,0.00,fowsr,2013-01-14 23:04:00,
2013-01-14 16:05:00,14.4,-0.5,30.01,West,270,9.8,13.0,36,0.00,,,0.00,fowsr,2013-01-14 23:05:00,
2013-01-14 16:08:00,13.6,-0.8,100.00,West,270,8.3,10.7,37,0.00,,,0.00,fowsr,2013-01-14 23:08:00,
2013-01-14 16:09:00,13.6,-0.8,100.00,West,270,8.3,10.7,37,0.00,,,0.00,fowsr,2013-01-14 23:09:00,
2013-01-14 16:10:00,13.8,-0.6,30.02,West,270,11.4,13.6,37,0.00,,,0.00,fowsr,2013-01-14 23:10:00,
2013-01-14 16:13:00,13.5,-0.9,100.00,West,270,8.3,10.7,37,0.00,,,0.00,fowsr,2013-01-14 23:13:00,
2013-01-14 16:14:00,13.5,-0.9,100.00,West,270,8.3,10.7,37,0.00,,,0.00,fowsr,2013-01-14 23:14:00,
2013-01-14 16:15:00,13.6,-0.8,30.01,West,270,8.3,12.1,37,0.00,,,0.00,fowsr,2013-01-14 23:15:00,
2013-01-14 16:18:00,13.1,-1.3,100.00,West,270,6.9,9.2,37,0.00,,,0.00,fowsr,2013-01-14 23:18:00,
2013-01-14 16:19:00,13.1,-1.3,100.00,West,270,6.9,9.2,37,0.00,,,0.00,fowsr,2013-01-14 23:19:00,
2013-01-14 16:23:00,12.7,-1.6,100.00,West,270,6.0,7.6,37,0.00,,,0.00,fowsr,2013-01-14 23:23:00,
2013-01-14 16:24:00,13.1,-1.3,30.01,West,270,7.6,9.8,37,0.00,,,0.00,fowsr,2013-01-14 23:24:00,
2013-01-14 16:28:00,12.4,-1.5,100.00,West,270,6.0,6.9,38,0.00,,,0.00,fowsr,2013-01-14 23:28:00,
2013-01-14 16:29:00,12.6,-1.7,30.01,West,270,6.0,7.6,37,0.00,,,0.00,fowsr,2013-01-14 23:29:00,
2013-01-14 16:33:00,12.0,-1.9,100.00,West,270,3.8,5.4,38,0.00,,,0.00,fowsr,2013-01-14 23:33:00,
2013-01-14 16:34:00,12.2,-1.7,30.01,West,270,6.9,8.3,38,0.00,,,0.00,fowsr,2013-01-14 23:34:00,
2013-01-14 16:38:00,11.3,-2.5,100.00,West,270,3.8,4.5,38,0.00,,,0.00,fowsr,2013-01-14 23:38:00,
2013-01-14 16:39:00,11.8,-2.0,30.00,West,270,3.8,5.4,38,0.00,,,0.00,fowsr,2013-01-14 23:39:00,
2013-01-14 16:43:00,10.6,-2.8,100.00,WSW,247,3.1,3.8,39,0.00,,,0.00,fowsr,2013-01-14 23:43:00,
2013-01-14 16:44:00,11.1,-2.3,30.01,West,270,3.8,4.5,39,0.00,,,0.00,fowsr,2013-01-14 23:44:00,
2013-01-14 16:48:00,9.5,-3.8,100.00,SW,225,4.5,5.4,39,0.00,,,0.00,fowsr,2013-01-14 23:48:00,
2013-01-14 16:49:00,10.2,-3.1,30.01,SW,225,3.8,4.5,39,0.00,,,0.00,fowsr,2013-01-14 23:49:00,
2013-01-14 16:53:00,8.6,-4.2,100.00,SW,225,3.1,4.5,40,0.00,,,0.00,fowsr,2013-01-14 23:53:00,
2013-01-14 16:54:00,9.3,-3.9,30.01,SW,225,3.8,4.5,39,0.00,,,0.00,fowsr,2013-01-14 23:54:00,
2013-01-14 16:58:00,8.4,-4.4,100.00,SW,225,3.1,3.8,40,0.00,,,0.00,fowsr,2013-01-14 23:58:00,
2013-01-14 16:59:00,8.6,-4.2,30.01,SW,225,3.1,4.5,40,0.00,,,0.00,fowsr,2013-01-14 23:59:00,
2013-01-14 17:03:00,7.3,-5.4,100.00,WSW,247,6.0,7.6,40,0.00,,,0.00,fowsr,2013-01-15 00:03:00,
2013-01-14 17:04:00,8.4,-4.4,30.01,SW,225,3.1,3.8,40,0.00,,,0.00,fowsr,2013-01-15 00:04:00,
2013-01-14 17:08:00,6.8,-5.5,100.00,SW,225,7.6,9.8,41,0.00,,,0.00,fowsr,2013-01-15 00:08:00,
2013-01-14 17:09:00,7.2,-5.5,30.01,SW,225,5.4,6.9,40,0.00,,,0.00,fowsr,2013-01-15 00:09:00,
2013-01-14 17:13:00,6.6,-5.4,100.00,WNW,292,7.6,9.2,42,0.00,,,0.00,fowsr,2013-01-15 00:13:00,
2013-01-14 17:14:00,6.8,-5.5,30.01,SW,225,6.9,9.2,41,0.00,,,0.00,fowsr,2013-01-15 00:14:00,
2013-01-14 17:18:00,6.8,-4.9,100.00,West,270,7.6,9.2,43,0.00,,,0.00,fowsr,2013-01-15 00:18:00,
2013-01-14 17:19:00,6.6,-5.4,30.01,West,270,7.6,9.8,42,0.00,,,0.00,fowsr,2013-01-15 00:19:00,
2013-01-14 17:23:00,6.6,-5.4,100.00,SW,225,6.9,9.2,42,0.00,,,0.00,fowsr,2013-01-15 00:23:00,
2013-01-14 17:24:00,7.0,-5.0,30.01,North,0,7.6,8.3,42,0.00,,,0.00,fowsr,2013-01-15 00:24:00,
2013-01-14 17:28:00,6.3,-5.7,100.00,North,0,5.4,6.9,42,0.00,,,0.00,fowsr,2013-01-15 00:28:00,
2013-01-14 17:29:00,6.6,-5.4,30.01,SW,225,6.0,7.6,42,0.00,,,0.00,fowsr,2013-01-15 00:29:00,
2013-01-14 17:33:00,5.9,-6.0,100.00,SW,225,5.4,6.0,42,0.00,,,0.00,fowsr,2013-01-15 00:33:00,
2013-01-14 17:34:00,6.3,-5.7,30.01,SW,225,5.4,6.0,42,0.00,,,0.00,fowsr,2013-01-15 00:34:00,
2013-01-14 17:38:00,5.4,-6.5,100.00,SW,225,3.8,4.5,42,0.00,,,0.00,fowsr,2013-01-15 00:38:00,
2013-01-14 17:39:00,5.9,-6.0,30.01,SW,225,4.5,6.0,42,0.00,,,0.00,fowsr,2013-01-15 00:39:00,
2013-01-14 17:43:00,5.0,-6.5,100.00,WSW,247,3.1,4.5,43,0.00,,,0.00,fowsr,2013-01-15 00:43:00,
2013-01-14 17:44:00,5.4,-6.5,30.02,SW,225,3.8,4.5,42,0.00,,,0.00,fowsr,2013-01-15 00:44:00,
2013-01-14 17:48:00,5.2,-6.1,100.00,West,270,3.8,4.5,44,0.00,,,0.00,fowsr,2013-01-15 00:48:00,
2013-01-14 17:49:00,5.0,-6.5,30.01,West,270,3.1,4.5,43,0.00,,,0.00,fowsr,2013-01-15 00:49:00,
2013-01-14 17:53:00,5.5,-5.7,100.00,West,270,4.5,5.4,44,0.00,,,0.00,fowsr,2013-01-15 00:53:00,
2013-01-14 17:54:00,5.2,-6.1,30.01,West,270,3.1,4.5,44,0.00,,,0.00,fowsr,2013-01-15 00:54:00,
2013-01-14 17:58:00,5.7,-5.6,100.00,West,270,2.2,3.8,44,0.00,,,0.00,fowsr,2013-01-15 00:58:00,
2013-01-14 17:59:00,5.5,-5.7,30.01,West,270,3.8,5.4,44,0.00,,,0.00,fowsr,2013-01-15 00:59:00,
2013-01-14 18:03:00,4.8,-6.7,100.00,South,180,3.8,6.0,43,0.00,,,0.00,fowsr,2013-01-15 01:03:00,
2013-01-14 18:04:00,5.7,-5.6,30.01,West,270,2.2,3.8,44,0.00,,,0.00,fowsr,2013-01-15 01:04:00,
2013-01-14 18:08:00,3.9,-7.5,100.00,SW,225,2.2,3.1,43,0.00,,,0.00,fowsr,2013-01-15 01:08:00,
2013-01-14 18:09:00,4.5,-7.0,30.01,NE,45,0.7,3.1,43,0.00,,,0.00,fowsr,2013-01-15 01:09:00,
2013-01-14 18:13:00,3.6,-7.5,100.00,West,270,0.0,0.7,44,0.00,,,0.00,fowsr,2013-01-15 01:13:00,
2013-01-14 18:14:00,3.7,-7.7,30.02,SSW,202,1.6,3.1,43,0.00,,,0.00,fowsr,2013-01-15 01:14:00,
2013-01-14 18:18:00,3.6,-7.5,100.00,West,270,0.7,1.6,44,0.00,,,0.00,fowsr,2013-01-15 01:18:00,
2013-01-14 18:19:00,3.6,-7.5,30.02,West,270,0.0,0.7,44,0.00,,,0.00,fowsr,2013-01-15 01:19:00,
2013-01-14 18:23:00,3.7,-7.1,100.00,North,0,1.6,3.1,45,0.00,,,0.00,fowsr,2013-01-15 01:23:00,
2013-01-14 18:24:00,3.6,-7.5,30.02,West,270,0.7,1.6,44,0.00,,,0.00,fowsr,2013-01-15 01:24:00,
2013-01-14 18:28:00,4.6,-6.0,100.00,NW,315,4.5,5.4,46,0.00,,,0.00,fowsr,2013-01-15 01:28:00,
2013-01-14 18:29:00,3.9,-6.9,30.02,North,0,2.2,3.1,45,0.00,,,0.00,fowsr,2013-01-15 01:29:00,
2013-01-14 18:33:00,6.1,-4.7,100.00,West,270,3.8,5.4,46,0.00,,,0.00,fowsr,2013-01-15 01:33:00,
2013-01-14 18:34:00,5.0,-5.7,30.01,NW,315,3.8,4.5,46,0.00,,,0.00,fowsr,2013-01-15 01:34:00,
2013-01-14 18:38:00,5.5,-6.0,100.00,West,270,1.6,2.2,43,0.00,,,0.00,fowsr,2013-01-15 01:38:00,
2013-01-14 18:39:00,6.3,-4.8,30.02,West,270,2.2,3.8,45,0.00,,,0.00,fowsr,2013-01-15 01:39:00,
2013-01-14 18:43:00,4.5,-7.0,100.00,West,270,0.7,1.6,43,0.00,,,0.00,fowsr,2013-01-15 01:43:00,
2013-01-14 18:44:00,4.5,-7.0,100.00,West,270,0.7,1.6,43,0.00,,,0.00,fowsr,2013-01-15 01:44:00,
2013-01-14 18:45:00,5.2,-6.4,30.02,West,270,1.6,2.2,43,0.00,,,0.00,fowsr,2013-01-15 01:45:00,
2013-01-14 18:48:00,3.7,-7.4,100.00,West,270,0.0,0.0,44,0.00,,,0.00,fowsr,2013-01-15 01:48:00,
2013-01-14 18:49:00,3.7,-7.4,100.00,West,270,0.0,0.0,44,0.00,,,0.00,fowsr,2013-01-15 01:49:00,
2013-01-14 18:50:00,4.1,-7.1,30.02,West,270,0.0,0.0,44,0.00,,,0.00,fowsr,2013-01-15 01:50:00,
2013-01-14 18:53:00,3.6,-7.5,100.00,West,270,1.6,4.5,44,0.00,,,0.00,fowsr,2013-01-15 01:53:00,
2013-01-14 18:54:00,3.6,-7.5,100.00,West,270,1.6,4.5,44,0.00,,,0.00,fowsr,2013-01-15 01:54:00,
2013-01-14 18:55:00,3.6,-7.5,30.02,NW,315,1.6,2.2,44,0.00,,,0.00,fowsr,2013-01-15 01:55:00,
2013-01-14 18:58:00,3.4,-7.7,100.00,West,270,3.1,5.4,44,0.00,,,0.00,fowsr,2013-01-15 01:58:00,
2013-01-14 18:59:00,3.4,-7.7,100.00,West,270,3.1,5.4,44,0.00,,,0.00,fowsr,2013-01-15 01:59:00,
2013-01-14 19:00:00,3.4,-7.7,30.02,West,270,3.1,5.4,44,0.00,,,0.00,fowsr,2013-01-15 02:00:00,
2013-01-14 19:03:00,4.3,-6.3,100.00,West,270,3.8,4.5,46,0.00,,,0.00,fowsr,2013-01-15 02:03:00,
2013-01-14 19:04:00,4.3,-6.3,100.00,West,270,3.8,4.5,46,0.00,,,0.00,fowsr,2013-01-15 02:04:00,
2013-01-14 19:05:00,3.4,-7.7,30.02,West,270,3.1,5.4,44,0.00,,,0.00,fowsr,2013-01-15 02:05:00,
2013-01-14 19:08:00,5.5,-5.7,100.00,West,270,0.7,2.2,44,0.00,,,0.00,fowsr,2013-01-15 02:08:00,
2013-01-14 19:09:00,5.5,-5.7,100.00,West,270,0.7,2.2,44,0.00,,,0.00,fowsr,2013-01-15 02:09:00,
2013-01-14 19:10:00,5.0,-5.9,30.01,WNW,292,3.8,4.5,45,0.00,,,0.00,fowsr,2013-01-15 02:10:00,
2013-01-14 19:13:00,4.8,-6.7,100.00,NW,315,0.0,0.0,43,0.00,,,0.00,fowsr,2013-01-15 02:13:00,
2013-01-14 19:14:00,4.8,-6.7,100.00,NW,315,0.0,0.0,43,0.00,,,0.00,fowsr,2013-01-15 02:14:00,
2013-01-14 19:15:00,5.4,-6.2,30.01,NW,315,0.7,1.6,43,0.00,,,0.00,fowsr,2013-01-15 02:15:00,
2013-01-14 19:18:00,3.0,-8.9,100.00,SE,135,2.2,3.8,41,0.00,,,0.00,fowsr,2013-01-15 02:18:00,
2013-01-14 19:19:00,3.0,-8.9,100.00,SE,135,2.2,3.8,41,0.00,,,0.00,fowsr,2013-01-15 02:19:00,
2013-01-14 19:20:00,4.3,-7.2,30.01,North,0,0.0,0.7,43,0.00,,,0.00,fowsr,2013-01-15 02:20:00,
2013-01-14 19:23:00,0.9,-10.6,100.00,East,90,0.7,1.6,42,0.00,,,0.00,fowsr,2013-01-15 02:23:00,
2013-01-14 19:24:00,0.9,-10.6,100.00,East,90,0.7,1.6,42,0.00,,,0.00,fowsr,2013-01-15 02:24:00,
2013-01-14 19:28:00,0.0,-11.1,100.00,East,90,1.6,2.2,43,0.00,,,0.00,fowsr,2013-01-15 02:28:00,
2013-01-14 19:29:00,0.5,-10.9,30.01,NE,45,0.0,0.0,42,0.00,,,0.00,fowsr,2013-01-15 02:29:00,
2013-01-14 19:33:00,-0.6,-11.3,100.00,North,0,0.7,2.2,44,0.00,,,0.00,fowsr,2013-01-15 02:33:00,
2013-01-14 19:34:00,-0.6,-11.3,100.00,North,0,0.7,2.2,44,0.00,,,0.00,fowsr,2013-01-15 02:34:00,
2013-01-14 19:38:00,-0.9,-11.1,100.00,North,0,0.0,0.7,46,0.00,,,0.00,fowsr,2013-01-15 02:38:00,
2013-01-14 19:39:00,-0.8,-11.5,30.01,North,0,0.0,2.2,44,0.00,,,0.00,fowsr,2013-01-15 02:39:00,
2013-01-14 19:43:00,-1.1,-11.3,100.00,NE,45,0.0,0.7,46,0.00,,,0.00,fowsr,2013-01-15 02:43:00,
2013-01-14 19:44:00,-0.9,-11.1,30.01,North,0,0.7,3.1,46,0.00,,,0.00,fowsr,2013-01-15 02:44:00,
2013-01-14 19:48:00,-1.7,-11.7,100.00,East,90,2.2,3.1,46,0.00,,,0.00,fowsr,2013-01-15 02:48:00,
2013-01-14 19:49:00,-1.1,-11.3,30.01,East,90,3.1,4.5,46,0.00,,,0.00,fowsr,2013-01-15 02:49:00,
2013-01-14 19:53:00,-2.0,-11.8,100.00,ESE,112,0.0,1.6,47,0.00,,,0.00,fowsr,2013-01-15 02:53:00,
2013-01-14 19:54:00,-1.7,-11.7,30.00,East,90,1.6,3.1,46,0.00,,,0.00,fowsr,2013-01-15 02:54:00,
2013-01-14 19:58:00,-2.0,-11.8,100.00,East,90,3.1,3.8,47,0.00,,,0.00,fowsr,2013-01-15 02:58:00,
2013-01-14 19:59:00,-2.0,-11.8,30.00,East,90,2.2,3.8,47,0.00,,,0.00,fowsr,2013-01-15 02:59:00,
2013-01-14 20:03:00,-2.0,-11.8,100.00,South,180,0.7,1.6,47,0.00,,,0.00,fowsr,2013-01-15 03:03:00,
2013-01-14 20:04:00,-2.0,-11.8,30.00,East,90,3.1,3.8,47,0.00,,,0.00,fowsr,2013-01-15 03:04:00,
2013-01-14 20:08:00,-2.2,-12.0,100.00,East,90,1.6,3.1,47,0.00,,,0.00,fowsr,2013-01-15 03:08:00,
2013-01-14 20:09:00,-2.0,-11.8,30.00,SE,135,1.6,2.2,47,0.00,,,0.00,fowsr,2013-01-15 03:09:00,
2013-01-14 20:13:00,-2.9,-13.2,100.00,East,90,3.8,5.4,45,0.00,,,0.00,fowsr,2013-01-15 03:13:00,
2013-01-14 20:14:00,-2.2,-12.0,30.00,East,90,2.2,3.8,47,0.00,,,0.00,fowsr,2013-01-15 03:14:00,
2013-01-14 20:18:00,-5.1,-15.2,100.00,East,90,3.8,5.4,45,0.00,,,0.00,fowsr,2013-01-15 03:18:00,
2013-01-14 20:19:00,-3.3,-13.5,29.99,East,90,4.5,6.0,45,0.00,,,0.00,fowsr,2013-01-15 03:19:00,
2013-01-14 20:23:00,-6.2,-15.9,100.00,East,90,3.1,4.5,46,0.00,,,0.00,fowsr,2013-01-15 03:23:00,
2013-01-14 20:24:00,-5.3,-15.3,29.99,East,90,3.1,4.5,45,0.00,,,0.00,fowsr,2013-01-15 03:24:00,
2013-01-14 20:28:00,-7.2,-16.6,100.00,East,90,6.0,6.9,47,0.00,,,0.00,fowsr,2013-01-15 03:28:00,
2013-01-14 20:29:00,-6.3,-16.0,29.99,East,90,4.5,6.0,46,0.00,,,0.00,fowsr,2013-01-15 03:29:00,
2013-01-14 20:33:00,-7.8,-16.6,100.00,East,90,6.0,7.6,49,0.00,,,0.00,fowsr,2013-01-15 03:33:00,
2013-01-14 20:34:00,-7.2,-16.6,30.00,East,90,5.4,7.6,47,0.00,,,0.00,fowsr,2013-01-15 03:34:00,
2013-01-14 20:38:00,-7.8,-15.9,100.00,East,90,6.9,8.3,52,0.00,,,0.00,fowsr,2013-01-15 03:38:00,
2013-01-14 20:39:00,-7.8,-16.6,29.99,East,90,5.4,6.9,49,0.00,,,0.00,fowsr,2013-01-15 03:39:00,
2013-01-14 20:43:00,-7.4,-15.3,100.00,East,90,5.4,6.9,53,0.00,,,0.00,fowsr,2013-01-15 03:43:00,
2013-01-14 20:44:00,-6.3,-14.6,29.99,East,90,6.9,8.3,52,0.00,,,0.00,fowsr,2013-01-15 03:44:00,
2013-01-14 20:48:00,-7.2,-14.9,100.00,East,90,9.2,11.4,54,0.00,,,0.00,fowsr,2013-01-15 03:48:00,
2013-01-14 20:49:00,-7.4,-15.3,29.99,East,90,5.4,6.9,53,0.00,,,0.00,fowsr,2013-01-15 03:49:00,
2013-01-14 20:53:00,-6.9,-14.6,100.00,East,90,8.3,10.7,54,0.00,,,0.00,fowsr,2013-01-15 03:53:00,
2013-01-14 20:54:00,-7.1,-14.6,30.00,East,90,8.3,10.7,55,0.00,,,0.00,fowsr,2013-01-15 03:54:00,
2013-01-14 20:58:00,-6.7,-14.2,100.00,East,90,8.3,9.8,55,0.00,,,0.00,fowsr,2013-01-15 03:58:00,
2013-01-14 20:59:00,-6.7,-14.4,30.00,East,90,8.3,10.7,54,0.00,,,0.00,fowsr,2013-01-15 03:59:00,
2013-01-14 21:03:00,-6.3,-14.1,100.00,East,90,3.1,4.5,54,0.00,,,0.00,fowsr,2013-01-15 04:03:00,
2013-01-14 21:04:00,-6.3,-14.1,100.00,East,90,3.1,4.5,54,0.00,,,0.00,fowsr,2013-01-15 04:04:00,
2013-01-14 21:05:00,-6.7,-14.2,29.99,East,90,8.3,9.8,55,0.00,,,0.00,fowsr,2013-01-15 04:05:00,
2013-01-14 21:08:00,-7.1,-15.0,100.00,East,90,6.0,8.3,53,0.00,,,0.00,fowsr,2013-01-15 04:08:00,
2013-01-14 21:09:00,-7.1,-15.0,100.00,East,90,6.0,8.3,53,0.00,,,0.00,fowsr,2013-01-15 04:09:00,
2013-01-14 21:10:00,-6.7,-14.7,29.99,East,90,4.5,6.0,53,0.00,,,0.00,fowsr,2013-01-15 04:10:00,
2013-01-14 21:13:00,-7.2,-15.2,100.00,East,90,7.6,9.2,53,0.00,,,0.00,fowsr,2013-01-15 04:13:00,
2013-01-14 21:14:00,-7.2,-15.2,100.00,East,90,7.6,9.2,53,0.00,,,0.00,fowsr,2013-01-15 04:14:00,
2013-01-14 21:15:00,-7.2,-15.2,29.99,East,90,7.6,9.2,53,0.00,,,0.00,fowsr,2013-01-15 04:15:00,
2013-01-14 21:18:00,-7.4,-15.1,100.00,East,90,6.9,8.3,54,0.00,,,0.00,fowsr,2013-01-15 04:18:00,
2013-01-14 21:19:00,-7.4,-15.1,100.00,East,90,6.9,8.3,54,0.00,,,0.00,fowsr,2013-01-15 04:19:00,
2013-01-14 21:20:00,-7.2,-14.9,30.00,East,90,4.5,6.0,54,0.00,,,0.00,fowsr,2013-01-15 04:20:00,
2013-01-14 21:23:00,-7.6,-15.1,100.00,East,90,6.9,8.3,55,0.00,,,0.00,fowsr,2013-01-15 04:23:00,
2013-01-14 21:24:00,-7.6,-15.1,100.00,East,90,6.9,8.3,55,0.00,,,0.00,fowsr,2013-01-15 04:24:00,
2013-01-14 21:25:00,-7.6,-15.5,30.00,East,90,6.9,7.6,53,0.00,,,0.00,fowsr,2013-01-15 04:25:00,
2013-01-14 21:28:00,-4.5,-12.0,100.00,East,90,4.5,6.0,56,0.00,,,0.00,fowsr,2013-01-15 04:28:00,
2013-01-14 21:29:00,-4.5,-12.0,100.00,East,90,4.5,6.0,56,0.00,,,0.00,fowsr,2013-01-15 04:29:00,
2013-01-14 21:30:00,-7.4,-14.9,30.00,East,90,6.9,8.3,55,0.00,,,0.00,fowsr,2013-01-15 04:30:00,
2013-01-14 21:33:00,-6.2,-13.9,100.00,East,90,3.8,5.4,54,0.00,,,0.00,fowsr,2013-01-15 04:33:00,
2013-01-14 21:34:00,-6.2,-13.9,100.00,East,90,3.8,5.4,54,0.00,,,0.00,fowsr,2013-01-15 04:34:00,
2013-01-14 21:35:00,-6.2,-13.5,30.00,East,90,3.8,5.4,56,0.00,,,0.00,fowsr,2013-01-15 04:35:00,
2013-01-14 21:38:00,-5.8,-13.6,100.00,ENE,67,3.8,5.4,54,0.00,,,0.00,fowsr,2013-01-15 04:38:00,
2013-01-14 21:39:00,-5.8,-13.6,100.00,ENE,67,3.8,5.4,54,0.00,,,0.00,fowsr,2013-01-15 04:39:00,
2013-01-14 21:40:00,-6.2,-13.9,30.00,East,90,2.2,3.8,54,0.00,,,0.00,fowsr,2013-01-15 04:40:00,
2013-01-14 21:43:00,-6.2,-13.9,100.00,NE,45,5.4,6.0,54,0.00,,,0.00,fowsr,2013-01-15 04:43:00,
2013-01-14 21:44:00,-6.2,-13.9,100.00,NE,45,5.4,6.0,54,0.00,,,0.00,fowsr,2013-01-15 04:44:00,
2013-01-14 21:45:00,-6.3,-14.6,30.00,East,90,4.5,6.0,52,0.00,,,0.00,fowsr,2013-01-15 04:45:00,
2013-01-14 21:48:00,-6.2,-14.2,100.00,East,90,5.4,6.0,53,0.00,,,0.00,fowsr,2013-01-15 04:48:00,
2013-01-14 21:49:00,-6.2,-14.2,100.00,East,90,5.4,6.0,53,0.00,,,0.00,fowsr,2013-01-15 04:49:00,
2013-01-14 21:50:00,-5.8,-13.6,30.00,East,90,4.5,6.9,54,0.00,,,0.00,fowsr,2013-01-15 04:50:00,
2013-01-14 21:53:00,-6.0,-14.0,100.00,East,90,3.1,4.5,53,0.00,,,0.00,fowsr,2013-01-15 04:53:00,
2013-01-14 21:54:00,-6.0,-14.0,100.00,East,90,3.1,4.5,53,0.00,,,0.00,fowsr,2013-01-15 04:54:00,
2013-01-14 21:55:00,-6.3,-14.6,30.00,ENE,67,4.5,6.9,52,0.00,,,0.00,fowsr,2013-01-15 04:55:00,
2013-01-14 21:58:00,-6.2,-14.4,100.00,East,90,3.1,4.5,52,0.00,,,0.00,fowsr,2013-01-15 04:58:00,
2013-01-14 21:59:00,-6.2,-14.4,100.00,East,90,3.1,4.5,52,0.00,,,0.00,fowsr,2013-01-15 04:59:00,
2013-01-14 22:00:00,-6.2,-14.4,29.99,East,90,3.1,4.5,52,0.00,,,0.00,fowsr,2013-01-15 05:00:00,
2013-01-14 22:03:00,-6.3,-14.3,100.00,NE,45,1.6,3.1,53,0.00,,,0.00,fowsr,2013-01-15 05:03:00,
2013-01-14 22:04:00,-6.2,-14.4,30.00,East,90,3.1,4.5,52,0.00,,,0.00,fowsr,2013-01-15 05:04:00,
2013-01-14 22:08:00,-5.4,-13.7,100.00,East,90,1.6,3.1,52,0.00,,,0.00,fowsr,2013-01-15 05:08:00,
2013-01-14 22:09:00,-5.8,-13.6,30.00,SE,135,0.0,1.6,54,0.00,,,0.00,fowsr,2013-01-15 05:09:00,
2013-01-14 22:13:00,-4.2,-12.3,100.00,South,180,0.0,3.1,53,0.00,,,0.00,fowsr,2013-01-15 05:13:00,
2013-01-14 22:14:00,-5.3,-13.6,30.00,South,180,0.0,1.6,52,0.00,,,0.00,fowsr,2013-01-15 05:14:00,
2013-01-14 22:18:00,-3.5,-11.6,100.00,West,270,0.0,1.6,53,0.00,,,0.00,fowsr,2013-01-15 05:18:00,
2013-01-14 22:19:00,-4.0,-12.2,30.00,NW,315,0.0,1.6,53,0.00,,,0.00,fowsr,2013-01-15 05:19:00,
2013-01-14 22:20:00,-4.0,-12.2,29.99,NW,315,0.7,2.2,53,0.00,,,0.00,fowsr,2013-01-15 05:20:00,
2013-01-14 22:23:00,-2.6,-10.8,100.00,West,270,2.2,3.8,53,0.00,,,0.00,fowsr,2013-01-15 05:23:00,
2013-01-14 22:24:00,-3.3,-11.5,29.99,West,270,1.6,2.2,53,0.00,,,0.00,fowsr,2013-01-15 05:24:00,
2013-01-14 22:28:00,-1.8,-10.4,100.00,South,180,2.2,3.1,52,0.00,,,0.00,fowsr,2013-01-15 05:28:00,
2013-01-14 22:29:00,-1.8,-10.4,100.00,South,180,2.2,3.1,52,0.00,,,0.00,fowsr,2013-01-15 05:29:00,
2013-01-14 22:33:00,-2.0,-10.8,100.00,West,270,2.2,3.1,51,0.00,,,0.00,fowsr,2013-01-15 05:33:00,
2013-01-14 22:34:00,-1.8,-10.6,29.99,SW,225,1.6,3.1,51,0.00,,,0.00,fowsr,2013-01-15 05:34:00,
2013-01-14 22:38:00,-1.8,-10.6,100.00,West,270,1.6,3.1,51,0.00,,,0.00,fowsr,2013-01-15 05:38:00,
2013-01-14 22:39:00,-2.0,-11.0,29.99,SW,225,1.6,2.2,50,0.00,,,0.00,fowsr,2013-01-15 05:39:00,
2013-01-14 22:43:00,-1.7,-10.7,100.00,WSW,247,2.2,3.8,50,0.00,,,0.00,fowsr,2013-01-15 05:43:00,
2013-01-14 22:44:00,-1.7,-10.5,29.99,South,180,2.2,3.8,51,0.00,,,0.00,fowsr,2013-01-15 05:44:00,
2013-01-14 22:48:00,-1.8,-10.9,100.00,West,270,6.9,8.3,50,0.00,,,0.00,fowsr,2013-01-15 05:48:00,
2013-01-14 22:49:00,-1.7,-10.7,29.99,SW,225,2.2,3.8,50,0.00,,,0.00,fowsr,2013-01-15 05:49:00,
2013-01-14 22:53:00,0.5,-8.5,100.00,West,270,3.8,5.4,51,0.00,,,0.00,fowsr,2013-01-15 05:53:00,
2013-01-14 22:54:00,-1.7,-10.7,29.99,West,270,8.3,13.6,50,0.00,,,0.00,fowsr,2013-01-15 05:54:00,
2013-01-14 22:58:00,1.0,-8.2,100.00,West,270,5.4,6.0,50,0.00,,,0.00,fowsr,2013-01-15 05:58:00,
2013-01-14 22:59:00,0.9,-8.1,29.99,West,270,3.8,5.4,51,0.00,,,0.00,fowsr,2013-01-15 05:59:00,
2013-01-14 23:03:00,2.3,-7.6,100.00,West,270,0.0,1.6,48,0.00,,,0.00,fowsr,2013-01-15 06:03:00,
2013-01-14 23:04:00,1.0,-8.2,29.99,West,270,5.4,6.0,50,0.00,,,0.00,fowsr,2013-01-15 06:04:00,
2013-01-14 23:08:00,2.1,-8.0,100.00,North,0,0.0,0.0,47,0.00,,,0.00,fowsr,2013-01-15 06:08:00,
2013-01-14 23:09:00,2.3,-7.8,30.00,North,0,0.0,0.0,47,0.00,,,0.00,fowsr,2013-01-15 06:09:00,
2013-01-14 23:13:00,1.4,-8.7,100.00,North,0,3.1,3.8,47,0.00,,,0.00,fowsr,2013-01-15 06:13:00,
2013-01-14 23:14:00,2.1,-8.0,29.99,North,0,0.0,0.0,47,0.00,,,0.00,fowsr,2013-01-15 06:14:00,
2013-01-14 23:18:00,0.7,-9.3,100.00,North,0,0.0,0.7,47,0.00,,,0.00,fowsr,2013-01-15 06:18:00,
2013-01-14 23:19:00,1.2,-8.8,29.99,North,0,2.2,3.1,47,0.00,,,0.00,fowsr,2013-01-15 06:19:00,
2013-01-14 23:23:00,-0.6,-10.5,100.00,North,0,0.7,2.2,47,0.00,,,0.00,fowsr,2013-01-15 06:23:00,
2013-01-14 23:24:00,0.5,-9.5,29.99,North,0,0.0,0.0,47,0.00,,,0.00,fowsr,2013-01-15 06:24:00,
2013-01-14 23:28:00,-2.0,-11.8,100.00,West,270,2.2,4.5,47,0.00,,,0.00,fowsr,2013-01-15 06:28:00,
2013-01-14 23:29:00,-0.9,-10.8,29.99,North,0,1.6,2.2,47,0.00,,,0.00,fowsr,2013-01-15 06:29:00,
2013-01-14 23:33:00,-3.3,-12.7,100.00,West,270,1.6,2.2,48,0.00,,,0.00,fowsr,2013-01-15 06:33:00,
2013-01-14 23:34:00,-2.4,-12.1,29.99,West,270,2.2,3.8,47,0.00,,,0.00,fowsr,2013-01-15 06:34:00,
2013-01-14 23:38:00,-4.2,-13.3,100.00,West,270,0.0,0.0,49,0.00,,,0.00,fowsr,2013-01-15 06:38:00,
2013-01-14 23:39:00,-3.5,-12.9,29.99,West,270,0.7,1.6,48,0.00,,,0.00,fowsr,2013-01-15 06:39:00,
2013-01-14 23:43:00,-5.1,-14.1,100.00,West,270,0.0,0.7,49,0.00,,,0.00,fowsr,2013-01-15 06:43:00,
2013-01-14 23:44:00,-4.4,-13.5,29.99,West,270,0.0,0.0,49,0.00,,,0.00,fowsr,2013-01-15 06:44:00,
2013-01-14 23:48:00,-6.2,-15.1,100.00,SW,225,2.2,3.8,49,0.00,,,0.00,fowsr,2013-01-15 06:48:00,
2013-01-14 23:49:00,-5.4,-14.5,30.00,West,270,2.2,3.1,49,0.00,,,0.00,fowsr,2013-01-15 06:49:00,
2013-01-14 23:53:00,-6.9,-15.8,100.00,SW,225,0.0,0.7,49,0.00,,,0.00,fowsr,2013-01-15 06:53:00,
2013-01-14 23:54:00,-6.3,-15.3,30.00,SW,225,2.2,3.8,49,0.00,,,0.00,fowsr,2013-01-15 06:54:00,
2013-01-14 23:58:00,-7.1,-15.7,100.00,SW,225,0.7,2.2,50,0.00,,,0.00,fowsr,2013-01-15 06:58:00,
2013-01-14 23:59:00,-6.9,-15.5,30.00,SW,225,0.7,1.6,50,0.00,,,0.00,fowsr,2013-01-15 06:59:00,